Wetterdaten: Dienstag, 19.08.2014
Datum Zeit Temp. Aussen +5cm Feuchte Auss Luftdruck Regen Sonnenschein Regendauer UV Solar Windben
19.08.2014 00:00 11,3 C 10,6 C 97 % 1010,3 hPa 0,0 l/m 0 min 0 min 0,0 UV-I 0 W/m 17,7 km/h (3 Bft)
19.08.2014 00:02 11,4 C 10,6 C 97 % 1010,3 hPa 0,0 l/m 0 min 0 min 0,0 UV-I 0 W/m 17,7 km/h (3 Bft)
19.08.2014 00:05 11,4 C 10,6 C 97 % 1010,2 hPa 0,0 l/m 0 min 0 min 0,0 UV-I 0 W/m 21,3 km/h (4 Bft)
19.08.2014 00:06 11,4 C 10,6 C 97 % 1010,2 hPa 0,0 l/m 0 min 0 min 0,0 UV-I 0 W/m 17,7 km/h (3 Bft)
19.08.2014 00:08 11,4 C 10,6 C 97 % 1010,3 hPa 0,0 l/m 0 min 0 min 0,0 UV-I 0 W/m 14,2 km/h (3 Bft)
19.08.2014 00:10 11,4 C 10,6 C 97 % 1010,2 hPa 0,0 l/m 0 min 0 min 0,0 UV-I 0 W/m 10,7 km/h (2 Bft)
19.08.2014 00:12 11,4 C 10,6 C 97 % 1010,2 hPa 0,0 l/m 0 min 0 min 0,0 UV-I 0 W/m 10,7 km/h (2 Bft)
19.08.2014 00:14 11,4 C 10,6 C 97 % 1010,3 hPa 0,0 l/m 0 min 0 min 0,0 UV-I 0 W/m 0,0 km/h (0 Bft)
19.08.2014 00:16 11,5 C 10,6 C 97 % 1010,3 hPa 0,0 l/m 0 min 0 min 0,0 UV-I 0 W/m 0,0 km/h (0 Bft)
19.08.2014 00:18 11,5 C 10,6 C 97 % 1010,3 hPa 0,0 l/m 0 min 0 min 0,0 UV-I 0 W/m 10,7 km/h (2 Bft)
19.08.2014 00:20 11,5 C 10,6 C 97 % 1010,4 hPa 0,0 l/m 0 min 0 min 0,0 UV-I 0 W/m 10,7 km/h (2 Bft)
19.08.2014 00:22 11,6 C 10,6 C 97 % 1010,3 hPa 0,0 l/m 0 min 0 min 0,0 UV-I 0 W/m 14,2 km/h (3 Bft)
19.08.2014 00:24 11,6 C 10,6 C 97 % 1010,3 hPa 0,0 l/m 0 min 0 min 0,0 UV-I 0 W/m 14,2 km/h (3 Bft)
19.08.2014 00:26 11,6 C 10,6 C 97 % 1010,3 hPa 0,0 l/m 0 min 0 min 0,0 UV-I 0 W/m 3,5 km/h (1 Bft)
19.08.2014 00:28 11,6 C 10,6 C 97 % 1010,3 hPa 0,0 l/m 0 min 0 min 0,0 UV-I 0 W/m 3,5 km/h (1 Bft)
19.08.2014 00:30 11,6 C 10,6 C 97 % 1010,4 hPa 0,0 l/m 0 min 0 min 0,0 UV-I 0 W/m 10,7 km/h (2 Bft)
19.08.2014 00:32 11,6 C 10,6 C 97 % 1010,4 hPa 0,0 l/m 0 min 0 min 0,0 UV-I 0 W/m 10,7 km/h (2 Bft)
19.08.2014 00:34 11,6 C 10,6 C 97 % 1010,3 hPa 0,0 l/m 0 min 0 min 0,0 UV-I 0 W/m 14,2 km/h (3 Bft)
19.08.2014 00:36 11,6 C 10,6 C 97 % 1010,3 hPa 0,0 l/m 0 min 0 min 0,0 UV-I 0 W/m 14,2 km/h (3 Bft)
19.08.2014 00:38 11,7 C 10,6 C 97 % 1010,3 hPa 0,0 l/m 0 min 0 min 0,0 UV-I 0 W/m 14,2 km/h (3 Bft)
19.08.2014 00:40 11,7 C 10,6 C 97 % 1010,4 hPa 0,0 l/m 0 min 0 min 0,0 UV-I 0 W/m 17,7 km/h (3 Bft)
19.08.2014 00:42 11,7 C 10,6 C 97 % 1010,4 hPa 0,0 l/m 0 min 0 min 0,0 UV-I 0 W/m 14,2 km/h (3 Bft)
19.08.2014 00:44 11,7 C 10,6 C 97 % 1010,4 hPa 0,0 l/m 0 min 0 min 0,0 UV-I 0 W/m 14,2 km/h (3 Bft)
19.08.2014 00:46 11,7 C 10,6 C 97 % 1010,3 hPa 0,0 l/m 0 min 0 min 0,0 UV-I 0 W/m 17,7 km/h (3 Bft)
19.08.2014 00:48 11,7 C 10,6 C 97 % 1010,3 hPa 0,0 l/m 0 min 0 min 0,0 UV-I 0 W/m 14,2 km/h (3 Bft)
19.08.2014 00:50 11,7 C 10,6 C 97 % 1010,4 hPa 0,0 l/m 0 min 0 min 0,0 UV-I 0 W/m 21,3 km/h (4 Bft)
19.08.2014 00:52 11,7 C 10,6 C 97 % 1010,4 hPa 0,0 l/m 0 min 0 min 0,0 UV-I 0 W/m 10,7 km/h (2 Bft)
19.08.2014 00:54 11,7 C 10,6 C 97 % 1010,4 hPa 0,0 l/m 0 min 0 min 0,0 UV-I 0 W/m 17,7 km/h (3 Bft)
19.08.2014 00:56 11,8 C 10,6 C 96 % 1010,4 hPa 0,0 l/m 0 min 0 min 0,0 UV-I 0 W/m 17,7 km/h (3 Bft)
19.08.2014 00:58 11,8 C 10,6 C 97 % 1010,4 hPa 0,0 l/m 0 min 0 min 0,0 UV-I 0 W/m 14,2 km/h (3 Bft)
19.08.2014 01:00 11,8 C 10,6 C 97 % 1010,3 hPa 0,0 l/m 0 min 0 min 0,0 UV-I 0 W/m 21,3 km/h (4 Bft)
19.08.2014 01:02 11,8 C 10,6 C 97 % 1010,3 hPa 0,0 l/m 0 min 0 min 0,0 UV-I 0 W/m 14,2 km/h (3 Bft)
19.08.2014 01:04 11,8 C 10,6 C 97 % 1010,3 hPa 0,0 l/m 0 min 0 min 0,0 UV-I 0 W/m 14,2 km/h (3 Bft)
19.08.2014 01:06 11,8 C 10,6 C 96 % 1010,3 hPa 0,0 l/m 0 min 0 min 0,0 UV-I 0 W/m 14,2 km/h (3 Bft)
19.08.2014 01:08 11,8 C 10,6 C 96 % 1010,3 hPa 0,0 l/m 0 min 0 min 0,0 UV-I 0 W/m 10,7 km/h (2 Bft)
19.08.2014 01:10 11,8 C 10,6 C 96 % 1010,3 hPa 0,0 l/m 0 min 0 min 0,0 UV-I 0 W/m 17,7 km/h (3 Bft)
19.08.2014 01:12 11,8 C 10,6 C 96 % 1010,2 hPa 0,0 l/m 0 min 0 min 0,0 UV-I 0 W/m 10,7 km/h (2 Bft)
19.08.2014 01:14 11,8 C 10,6 C 96 % 1010,1 hPa 0,0 l/m 0 min 0 min 0,0 UV-I 0 W/m 14,2 km/h (3 Bft)
19.08.2014 01:16 11,8 C 10,6 C 96 % 1010,2 hPa 0,0 l/m 0 min 0 min 0,0 UV-I 0 W/m 10,7 km/h (2 Bft)
19.08.2014 01:18 11,8 C 10,6 C 96 % 1010,1 hPa 0,0 l/m 0 min 0 min 0,0 UV-I 0 W/m 17,7 km/h (3 Bft)
19.08.2014 01:20 11,8 C 10,6 C 96 % 1010,1 hPa 0,0 l/m 0 min 0 min 0,0 UV-I 0 W/m 14,2 km/h (3 Bft)
19.08.2014 01:22 11,8 C 10,6 C 96 % 1010,1 hPa 0,0 l/m 0 min 0 min 0,0 UV-I 0 W/m 17,7 km/h (3 Bft)
19.08.2014 01:24 11,8 C 10,6 C 96 % 1010,1 hPa 0,0 l/m 0 min 0 min 0,0 UV-I 0 W/m 14,2 km/h (3 Bft)
19.08.2014 01:26 11,8 C 10,6 C 96 % 1010,1 hPa 0,0 l/m 0 min 0 min 0,0 UV-I 0 W/m 14,2 km/h (3 Bft)
19.08.2014 01:28 11,8 C 10,6 C 96 % 1010,0 hPa 0,0 l/m 0 min 0 min 0,0 UV-I 0 W/m 10,7 km/h (2 Bft)
19.08.2014 01:30 11,7 C 10,6 C 96 % 1010,0 hPa 0,0 l/m 0 min 0 min 0,0 UV-I 0 W/m 10,7 km/h (2 Bft)
19.08.2014 01:32 11,7 C 10,6 C 96 % 1010,0 hPa 0,0 l/m 0 min 0 min 0,0 UV-I 0 W/m 10,7 km/h (2 Bft)
19.08.2014 01:34 11,7 C 10,6 C 96 % 1010,0 hPa 0,0 l/m 0 min 0 min 0,0 UV-I 0 W/m 10,7 km/h (2 Bft)
19.08.2014 01:36 11,7 C 10,6 C 96 % 1010,0 hPa 0,0 l/m 0 min 0 min 0,0 UV-I 0 W/m 14,2 km/h (3 Bft)
19.08.2014 01:38 11,6 C 10,6 C 96 % 1010,0 hPa 0,0 l/m 0 min 0 min 0,0 UV-I 0 W/m 14,2 km/h (3 Bft)
19.08.2014 01:40 11,6 C 10,6 C 96 % 1010,0 hPa 0,0 l/m 0 min 0 min 0,0 UV-I 0 W/m 14,2 km/h (3 Bft)
19.08.2014 01:42 11,6 C 10,6 C 96 % 1010,0 hPa 0,0 l/m 0 min 0 min 0,0 UV-I 0 W/m 14,2 km/h (3 Bft)
19.08.2014 01:44 11,6 C 10,6 C 96 % 1010,0 hPa 0,0 l/m 0 min 0 min 0,0 UV-I 0 W/m 14,2 km/h (3 Bft)
19.08.2014 01:46 11,6 C 10,6 C 96 % 1010,0 hPa 0,0 l/m 0 min 0 min 0,0 UV-I 0 W/m 14,2 km/h (3 Bft)
19.08.2014 01:48 11,6 C 10,6 C 96 % 1009,9 hPa 0,0 l/m 0 min 0 min 0,0 UV-I 0 W/m 14,2 km/h (3 Bft)
19.08.2014 01:50 11,6 C 10,6 C 96 % 1009,9 hPa 0,0 l/m 0 min 0 min 0,0 UV-I 0 W/m 14,2 km/h (3 Bft)
19.08.2014 01:52 11,6 C 10,6 C 96 % 1009,9 hPa 0,0 l/m 0 min 0 min 0,0 UV-I 0 W/m 10,7 km/h (2 Bft)
19.08.2014 01:54 11,6 C 10,6 C 96 % 1009,8 hPa 0,0 l/m 0 min 0 min 0,0 UV-I 0 W/m 7,1 km/h (2 Bft)
19.08.2014 01:56 11,6 C 10,6 C 96 % 1009,9 hPa 0,0 l/m 0 min 0 min 0,0 UV-I 0 W/m 21,3 km/h (4 Bft)
19.08.2014 01:58 11,6 C 10,6 C 96 % 1009,8 hPa 0,0 l/m 0 min 0 min 0,0 UV-I 0 W/m 10,7 km/h (2 Bft)
19.08.2014 02:00 11,6 C 10,6 C 96 % 1009,9 hPa 0,0 l/m 0 min 0 min 0,0 UV-I 0 W/m 14,2 km/h (3 Bft)
19.08.2014 02:02 11,6 C 10,6 C 96 % 1009,8 hPa 0,0 l/m 0 min 0 min 0,0 UV-I 0 W/m 14,2 km/h (3 Bft)
19.08.2014 02:04 11,6 C 10,6 C 96 % 1009,8 hPa 0,0 l/m 0 min 0 min 0,0 UV-I 0 W/m 14,2 km/h (3 Bft)
19.08.2014 02:06 11,6 C 10,6 C 96 % 1009,8 hPa 0,0 l/m 0 min 0 min 0,0 UV-I 0 W/m 14,2 km/h (3 Bft)
19.08.2014 02:08 11,6 C 10,6 C 96 % 1009,7 hPa 0,0 l/m 0 min 0 min 0,0 UV-I 0 W/m 14,2 km/h (3 Bft)
19.08.2014 02:10 11,5 C 10,6 C 96 % 1009,7 hPa 0,0 l/m 0 min 0 min 0,0 UV-I 0 W/m 14,2 km/h (3 Bft)
19.08.2014 02:12 11,5 C 10,6 C 96 % 1009,7 hPa 0,0 l/m 0 min 0 min 0,0 UV-I 0 W/m 21,3 km/h (4 Bft)
19.08.2014 02:14 11,5 C 10,6 C 96 % 1009,8 hPa 0,0 l/m 0 min 0 min 0,0 UV-I 0 W/m 14,2 km/h (3 Bft)
19.08.2014 02:16 11,5 C 10,6 C 96 % 1009,8 hPa 0,0 l/m 0 min 0 min 0,0 UV-I 0 W/m 14,2 km/h (3 Bft)
19.08.2014 02:18 11,5 C 10,6 C 96 % 1009,8 hPa 0,0 l/m 0 min 0 min 0,0 UV-I 0 W/m 10,7 km/h (2 Bft)
19.08.2014 02:20 11,5 C 10,6 C 96 % 1009,8 hPa 0,0 l/m 0 min 0 min 0,0 UV-I 0 W/m 14,2 km/h (3 Bft)
19.08.2014 02:22 11,5 C 10,6 C 96 % 1009,7 hPa 0,0 l/m 0 min 0 min 0,0 UV-I 0 W/m 14,2 km/h (3 Bft)
19.08.2014 02:24 11,4 C 10,0 C 96 % 1009,7 hPa 0,0 l/m 0 min 0 min 0,0 UV-I 0 W/m 0,0 km/h (0 Bft)
19.08.2014 02:26 11,5 C 10,6 C 96 % 1009,7 hPa 0,0 l/m 0 min 0 min 0,0 UV-I 0 W/m 7,1 km/h (2 Bft)
19.08.2014 02:28 11,5 C 10,6 C 96 % 1009,7 hPa 0,0 l/m 0 min 0 min 0,0 UV-I 0 W/m 14,2 km/h (3 Bft)
19.08.2014 02:30 11,5 C 10,6 C 96 % 1009,6 hPa 0,0 l/m 0 min 0 min 0,0 UV-I 0 W/m 7,1 km/h (2 Bft)
19.08.2014 02:32 11,5 C 10,6 C 96 % 1009,6 hPa 0,0 l/m 0 min 0 min 0,0 UV-I 0 W/m 10,7 km/h (2 Bft)
19.08.2014 02:34 11,6 C 10,6 C 96 % 1009,6 hPa 0,0 l/m 0 min 0 min 0,0 UV-I 0 W/m 10,7 km/h (2 Bft)
19.08.2014 02:36 11,6 C 10,6 C 96 % 1009,6 hPa 0,0 l/m 0 min 0 min 0,0 UV-I 0 W/m 10,7 km/h (2 Bft)
19.08.2014 02:38 11,6 C 10,6 C 96 % 1009,6 hPa 0,0 l/m 0 min 0 min 0,0 UV-I 0 W/m 14,2 km/h (3 Bft)
19.08.2014 02:40 11,6 C 10,6 C 96 % 1009,6 hPa 0,0 l/m 0 min 0 min 0,0 UV-I 0 W/m 14,2 km/h (3 Bft)
19.08.2014 02:42 11,6 C 10,6 C 96 % 1009,6 hPa 0,0 l/m 0 min 0 min 0,0 UV-I 0 W/m 17,7 km/h (3 Bft)
19.08.2014 02:44 11,6 C 10,6 C 96 % 1009,6 hPa 0,0 l/m 0 min 0 min 0,0 UV-I 0 W/m 14,2 km/h (3 Bft)
19.08.2014 02:46 11,6 C 10,6 C 96 % 1009,7 hPa 0,0 l/m 0 min 0 min 0,0 UV-I 0 W/m 21,3 km/h (4 Bft)
19.08.2014 02:48 11,7 C 10,6 C 96 % 1009,7 hPa 0,0 l/m 0 min 0 min 0,0 UV-I 0 W/m 14,2 km/h (3 Bft)
19.08.2014 02:50 11,7 C 10,6 C 96 % 1009,6 hPa 0,0 l/m 0 min 0 min 0,0 UV-I 0 W/m 17,7 km/h (3 Bft)
19.08.2014 02:52 11,7 C 10,6 C 96 % 1009,5 hPa 0,0 l/m 0 min 0 min 0,0 UV-I 0 W/m 0,0 km/h (0 Bft)
19.08.2014 02:54 11,7 C 10,6 C 96 % 1009,6 hPa 0,0 l/m 0 min 0 min 0,0 UV-I 0 W/m 10,7 km/h (2 Bft)
19.08.2014 02:56 11,7 C 10,6 C 96 % 1009,6 hPa 0,0 l/m 0 min 0 min 0,0 UV-I 0 W/m 10,7 km/h (2 Bft)
19.08.2014 02:58 11,7 C 10,6 C 96 % 1009,7 hPa 0,0 l/m 0 min 0 min 0,0 UV-I 0 W/m 14,2 km/h (3 Bft)
19.08.2014 03:00 11,7 C 10,6 C 96 % 1009,7 hPa 0,0 l/m 0 min 0 min 0,0 UV-I 0 W/m 10,7 km/h (2 Bft)
19.08.2014 03:02 11,7 C 10,6 C 96 % 1009,7 hPa 0,0 l/m 0 min 0 min 0,0 UV-I 0 W/m 0,0 km/h (0 Bft)
19.08.2014 03:04 11,7 C 10,6 C 96 % 1009,7 hPa 0,0 l/m 0 min 0 min 0,0 UV-I 0 W/m 0,0 km/h (0 Bft)
19.08.2014 03:06 11,7 C 10,6 C 96 % 1009,7 hPa 0,0 l/m 0 min 0 min 0,0 UV-I 0 W/m 0,0 km/h (0 Bft)
19.08.2014 03:08 11,7 C 10,6 C 96 % 1009,6 hPa 0,0 l/m 0 min 0 min 0,0 UV-I 0 W/m 10,7 km/h (2 Bft)
19.08.2014 03:10 11,7 C 10,6 C 96 % 1009,6 hPa 0,0 l/m 0 min 0 min 0,0 UV-I 0 W/m 3,5 km/h (1 Bft)
19.08.2014 03:12 11,7 C 10,6 C 96 % 1009,5 hPa 0,0 l/m 0 min 0 min 0,0 UV-I 0 W/m 3,5 km/h (1 Bft)
19.08.2014 03:14 11,7 C 10,6 C 96 % 1009,5 hPa 0,0 l/m 0 min 0 min 0,0 UV-I 0 W/m 0,0 km/h (0 Bft)
19.08.2014 03:16 11,7 C 10,6 C 96 % 1009,5 hPa 0,0 l/m 0 min 0 min 0,0 UV-I 0 W/m 0,0 km/h (0 Bft)
19.08.2014 03:18 11,7 C 10,6 C 96 % 1009,5 hPa 0,0 l/m 0 min 0 min 0,0 UV-I 0 W/m 0,0 km/h (0 Bft)
19.08.2014 03:20 11,7 C 10,6 C 96 % 1009,6 hPa 0,0 l/m 0 min 0 min 0,0 UV-I 0 W/m 0,0 km/h (0 Bft)
19.08.2014 03:22 11,7 C 10,6 C 96 % 1009,6 hPa 0,0 l/m 0 min 0 min 0,0 UV-I 0 W/m 7,1 km/h (2 Bft)
19.08.2014 03:24 11,7 C 10,6 C 96 % 1009,6 hPa 0,0 l/m 0 min 0 min 0,0 UV-I 0 W/m 10,7 km/h (2 Bft)
19.08.2014 03:26 11,7 C 10,6 C 96 % 1009,5 hPa 0,0 l/m 0 min 0 min 0,0 UV-I 0 W/m 10,7 km/h (2 Bft)
19.08.2014 03:28 11,7 C 10,6 C 96 % 1009,5 hPa 0,0 l/m 0 min 0 min 0,0 UV-I 0 W/m 0,0 km/h (0 Bft)
19.08.2014 03:30 11,7 C 10,6 C 96 % 1009,5 hPa 0,0 l/m 0 min 0 min 0,0 UV-I 0 W/m 0,0 km/h (0 Bft)
19.08.2014 03:32 11,7 C 10,6 C 96 % 1009,5 hPa 0,0 l/m 0 min 0 min 0,0 UV-I 0 W/m 0,0 km/h (0 Bft)
19.08.2014 03:34 11,7 C 10,6 C 96 % 1009,4 hPa 0,0 l/m 0 min 0 min 0,0 UV-I 0 W/m 0,0 km/h (0 Bft)
19.08.2014 03:36 11,8 C 10,6 C 96 % 1009,5 hPa 0,0 l/m 0 min 0 min 0,0 UV-I 0 W/m 0,0 km/h (0 Bft)
19.08.2014 03:38 11,8 C 10,6 C 96 % 1009,4 hPa 0,0 l/m 0 min 0 min 0,0 UV-I 0 W/m 10,7 km/h (2 Bft)
19.08.2014 03:40 11,8 C 10,6 C 96 % 1009,4 hPa 0,0 l/m 0 min 0 min 0,0 UV-I 0 W/m 17,7 km/h (3 Bft)
19.08.2014 03:42 11,8 C 10,6 C 96 % 1009,4 hPa 0,0 l/m 0 min 0 min 0,0 UV-I 0 W/m 10,7 km/h (2 Bft)
19.08.2014 03:44 11,8 C 10,6 C 95 % 1009,4 hPa 0,0 l/m 0 min 0 min 0,0 UV-I 0 W/m 10,7 km/h (2 Bft)
19.08.2014 03:46 11,8 C 10,6 C 95 % 1009,5 hPa 0,0 l/m 0 min 0 min 0,0 UV-I 0 W/m 14,2 km/h (3 Bft)
19.08.2014 03:48 11,8 C 10,6 C 95 % 1009,5 hPa 0,0 l/m 0 min 0 min 0,0 UV-I 0 W/m 3,5 km/h (1 Bft)
19.08.2014 03:50 11,8 C 10,6 C 95 % 1009,4 hPa 0,0 l/m 0 min 0 min 0,0 UV-I 0 W/m 0,0 km/h (0 Bft)
19.08.2014 03:52 11,8 C 10,6 C 95 % 1009,4 hPa 0,0 l/m 0 min 0 min 0,0 UV-I 0 W/m 0,0 km/h (0 Bft)
19.08.2014 03:54 11,8 C 10,6 C 95 % 1009,4 hPa 0,0 l/m 0 min 0 min 0,0 UV-I 0 W/m 10,7 km/h (2 Bft)
19.08.2014 03:56 11,8 C 10,6 C 95 % 1009,3 hPa 0,0 l/m 0 min 0 min 0,0 UV-I 0 W/m 7,1 km/h (2 Bft)
19.08.2014 03:58 11,8 C 10,6 C 95 % 1009,3 hPa 0,0 l/m 0 min 0 min 0,0 UV-I 0 W/m 10,7 km/h (2 Bft)
19.08.2014 04:00 11,8 C 10,6 C 95 % 1009,3 hPa 0,0 l/m 0 min 0 min 0,0 UV-I 0 W/m 10,7 km/h (2 Bft)
19.08.2014 04:05 11,8 C 10,6 C 95 % 1009,0 hPa 0,0 l/m 0 min 0 min 0,0 UV-I 0 W/m 14,2 km/h (3 Bft)
19.08.2014 04:06 11,8 C 10,6 C 95 % 1009,0 hPa 0,0 l/m 0 min 0 min 0,0 UV-I 0 W/m 7,1 km/h (2 Bft)
19.08.2014 04:08 11,8 C 10,6 C 96 % 1009,1 hPa 0,0 l/m 0 min 0 min 0,0 UV-I 0 W/m 14,2 km/h (3 Bft)
19.08.2014 04:10 11,8 C 10,6 C 96 % 1009,2 hPa 0,0 l/m 0 min 2 min 0,0 UV-I 0 W/m 14,2 km/h (3 Bft)
19.08.2014 04:12 11,8 C 10,6 C 96 % 1009,1 hPa 0,0 l/m 0 min 0 min 0,0 UV-I 0 W/m 14,2 km/h (3 Bft)
19.08.2014 04:14 11,8 C 10,6 C 96 % 1009,0 hPa 0,0 l/m 0 min 0 min 0,0 UV-I 0 W/m 17,7 km/h (3 Bft)
19.08.2014 04:16 11,8 C 10,6 C 96 % 1009,0 hPa 0,0 l/m 0 min 0 min 0,0 UV-I 0 W/m 17,7 km/h (3 Bft)
19.08.2014 04:18 11,8 C 10,6 C 96 % 1009,0 hPa 0,0 l/m 0 min 0 min 0,0 UV-I 0 W/m 17,7 km/h (3 Bft)
19.08.2014 04:20 11,8 C 10,6 C 96 % 1008,9 hPa 0,0 l/m 0 min 0 min 0,0 UV-I 0 W/m 21,3 km/h (4 Bft)
19.08.2014 04:22 11,8 C 10,6 C 96 % 1008,9 hPa 0,0 l/m 0 min 0 min 0,0 UV-I 0 W/m 14,2 km/h (3 Bft)
19.08.2014 04:24 11,8 C 10,6 C 96 % 1008,9 hPa 0,0 l/m 0 min 0 min 0,0 UV-I 0 W/m 17,7 km/h (3 Bft)
19.08.2014 04:26 11,8 C 10,6 C 96 % 1008,9 hPa 0,0 l/m 0 min 0 min 0,0 UV-I 0 W/m 14,2 km/h (3 Bft)
19.08.2014 04:28 11,8 C 10,6 C 96 % 1008,9 hPa 0,0 l/m 0 min 0 min 0,0 UV-I 0 W/m 10,7 km/h (2 Bft)
19.08.2014 04:30 11,8 C 10,6 C 96 % 1008,9 hPa 0,0 l/m 0 min 0 min 0,0 UV-I 0 W/m 17,7 km/h (3 Bft)
19.08.2014 04:32 11,7 C 10,6 C 96 % 1008,9 hPa 0,0 l/m 0 min 0 min 0,0 UV-I 0 W/m 14,2 km/h (3 Bft)
19.08.2014 04:34 11,7 C 10,6 C 96 % 1008,9 hPa 0,0 l/m 0 min 0 min 0,0 UV-I 0 W/m 14,2 km/h (3 Bft)
19.08.2014 04:36 11,7 C 10,6 C 96 % 1008,9 hPa 0,0 l/m 0 min 0 min 0,0 UV-I 0 W/m 10,7 km/h (2 Bft)
19.08.2014 04:38 11,7 C 10,6 C 96 % 1008,9 hPa 0,0 l/m 0 min 0 min 0,0 UV-I 0 W/m 10,7 km/h (2 Bft)
19.08.2014 04:40 11,6 C 10,6 C 96 % 1008,9 hPa 0,0 l/m 0 min 0 min 0,0 UV-I 0 W/m 14,2 km/h (3 Bft)
19.08.2014 04:42 11,6 C 10,0 C 96 % 1008,8 hPa 0,0 l/m 0 min 2 min 0,0 UV-I 0 W/m 21,3 km/h (4 Bft)
19.08.2014 04:44 11,6 C 10,0 C 96 % 1008,8 hPa 0,0 l/m 0 min 2 min 0,0 UV-I 0 W/m 17,7 km/h (3 Bft)
19.08.2014 04:46 11,6 C 10,0 C 96 % 1008,8 hPa 0,0 l/m 0 min 2 min 0,0 UV-I 0 W/m 17,7 km/h (3 Bft)
19.08.2014 04:48 11,6 C 10,0 C 96 % 1008,8 hPa 0,2 l/m 0 min 2 min 0,0 UV-I 0 W/m 17,7 km/h (3 Bft)
19.08.2014 04:50 11,6 C 10,0 C 95 % 1008,8 hPa 0,0 l/m 0 min 2 min 0,0 UV-I 0 W/m 17,7 km/h (3 Bft)
19.08.2014 04:52 11,6 C 10,0 C 95 % 1008,8 hPa 0,0 l/m 0 min 2 min 0,0 UV-I 0 W/m 17,7 km/h (3 Bft)
19.08.2014 04:54 11,6 C 10,0 C 96 % 1008,7 hPa 0,0 l/m 0 min 2 min 0,0 UV-I 0 W/m 24,7 km/h (4 Bft)
19.08.2014 04:56 11,6 C 10,0 C 96 % 1008,7 hPa 0,0 l/m 0 min 2 min 0,0 UV-I 0 W/m 24,7 km/h (4 Bft)
19.08.2014 04:58 11,6 C 10,0 C 96 % 1008,7 hPa 0,0 l/m 0 min 0 min 0,0 UV-I 0 W/m 21,3 km/h (4 Bft)
19.08.2014 05:00 11,5 C 10,0 C 96 % 1008,6 hPa 0,0 l/m 0 min 0 min 0,0 UV-I 0 W/m 24,7 km/h (4 Bft)
19.08.2014 05:02 11,5 C 10,0 C 96 % 1008,6 hPa 0,0 l/m 0 min 0 min 0,0 UV-I 0 W/m 21,3 km/h (4 Bft)
19.08.2014 05:04 11,4 C 10,0 C 96 % 1008,6 hPa 0,0 l/m 0 min 0 min 0,0 UV-I 0 W/m 17,7 km/h (3 Bft)
19.08.2014 05:06 11,4 C 10,0 C 96 % 1008,6 hPa 0,0 l/m 0 min 0 min 0,0 UV-I 0 W/m 14,2 km/h (3 Bft)
19.08.2014 05:08 11,4 C 10,0 C 96 % 1008,7 hPa 0,0 l/m 0 min 0 min 0,0 UV-I 0 W/m 17,7 km/h (3 Bft)
19.08.2014 05:10 11,3 C 10,0 C 96 % 1008,7 hPa 0,0 l/m 0 min 0 min 0,0 UV-I 0 W/m 17,7 km/h (3 Bft)
19.08.2014 05:12 11,3 C 10,0 C 96 % 1008,6 hPa 0,0 l/m 0 min 0 min 0,0 UV-I 0 W/m 17,7 km/h (3 Bft)
19.08.2014 05:14 11,3 C 10,0 C 96 % 1008,6 hPa 0,0 l/m 0 min 0 min 0,0 UV-I 0 W/m 10,7 km/h (2 Bft)
19.08.2014 05:16 11,3 C 10,0 C 96 % 1008,6 hPa 0,0 l/m 0 min 0 min 0,0 UV-I 0 W/m 7,1 km/h (2 Bft)
19.08.2014 05:18 11,3 C 10,0 C 96 % 1008,6 hPa 0,0 l/m 0 min 0 min 0,0 UV-I 0 W/m 14,2 km/h (3 Bft)
19.08.2014 05:20 11,3 C 10,0 C 96 % 1008,6 hPa 0,0 l/m 0 min 0 min 0,0 UV-I 0 W/m 3,5 km/h (1 Bft)
19.08.2014 05:22 11,3 C 10,0 C 96 % 1008,6 hPa 0,0 l/m 0 min 0 min 0,0 UV-I 0 W/m 10,7 km/h (2 Bft)
19.08.2014 05:24 11,3 C 10,0 C 96 % 1008,6 hPa 0,0 l/m 0 min 0 min 0,0 UV-I 0 W/m 10,7 km/h (2 Bft)
19.08.2014 05:26 11,3 C 10,0 C 96 % 1008,6 hPa 0,0 l/m 0 min 0 min 0,0 UV-I 0 W/m 21,3 km/h (4 Bft)
19.08.2014 05:28 11,2 C 10,0 C 96 % 1008,6 hPa 0,0 l/m 0 min 0 min 0,0 UV-I 0 W/m 10,7 km/h (2 Bft)
19.08.2014 05:30 11,2 C 10,0 C 96 % 1008,6 hPa 0,0 l/m 0 min 0 min 0,0 UV-I 0 W/m 10,7 km/h (2 Bft)
19.08.2014 05:32 11,2 C 10,0 C 96 % 1008,6 hPa 0,0 l/m 0 min 0 min 0,0 UV-I 0 W/m 10,7 km/h (2 Bft)
19.08.2014 05:34 11,2 C 10,0 C 96 % 1008,6 hPa 0,0 l/m 0 min 0 min 0,0 UV-I 0 W/m 14,2 km/h (3 Bft)
19.08.2014 05:36 11,2 C 10,0 C 96 % 1008,6 hPa 0,0 l/m 0 min 0 min 0,0 UV-I 0 W/m 0,0 km/h (0 Bft)
19.08.2014 05:38 11,2 C 10,0 C 96 % 1008,6 hPa 0,0 l/m 0 min 0 min 0,0 UV-I 0 W/m 0,0 km/h (0 Bft)
19.08.2014 05:40 11,2 C 10,0 C 96 % 1008,6 hPa 0,0 l/m 0 min 0 min 0,0 UV-I 0 W/m 0,0 km/h (0 Bft)
19.08.2014 05:42 11,2 C 10,0 C 96 % 1008,6 hPa 0,0 l/m 0 min 0 min 0,0 UV-I 0 W/m 3,5 km/h (1 Bft)
19.08.2014 05:44 11,2 C 10,0 C 96 % 1008,5 hPa 0,0 l/m 0 min 0 min 0,0 UV-I 0 W/m 10,7 km/h (2 Bft)
19.08.2014 05:46 11,2 C 10,0 C 96 % 1008,6 hPa 0,0 l/m 0 min 0 min 0,0 UV-I 0 W/m 0,0 km/h (0 Bft)
19.08.2014 05:48 11,2 C 10,0 C 96 % 1008,6 hPa 0,0 l/m 0 min 0 min 0,0 UV-I 0 W/m 14,2 km/h (3 Bft)
19.08.2014 05:50 11,2 C 10,0 C 96 % 1008,6 hPa 0,0 l/m 0 min 0 min 0,0 UV-I 0 W/m 17,7 km/h (3 Bft)
19.08.2014 05:52 11,2 C 10,0 C 96 % 1008,6 hPa 0,0 l/m 0 min 0 min 0,0 UV-I 0 W/m 3,5 km/h (1 Bft)
19.08.2014 05:54 11,2 C 10,0 C 96 % 1008,6 hPa 0,0 l/m 0 min 0 min 0,0 UV-I 0 W/m 17,7 km/h (3 Bft)
19.08.2014 05:56 11,3 C 10,0 C 96 % 1008,6 hPa 0,0 l/m 0 min 0 min 0,0 UV-I 0 W/m 14,2 km/h (3 Bft)
19.08.2014 05:58 11,3 C 10,0 C 96 % 1008,6 hPa 0,0 l/m 0 min 0 min 0,0 UV-I 0 W/m 0,0 km/h (0 Bft)
19.08.2014 06:00 11,3 C 10,0 C 96 % 1008,6 hPa 0,0 l/m 0 min 0 min 0,0 UV-I 0 W/m 0,0 km/h (0 Bft)
19.08.2014 06:02 11,3 C 10,0 C 96 % 1008,6 hPa 0,0 l/m 0 min 0 min 0,0 UV-I 0 W/m 10,7 km/h (2 Bft)
19.08.2014 06:06 11,4 C 10,6 C 96 % 1008,6 hPa 0,0 l/m 0 min 0 min 0,0 UV-I 0 W/m 10,7 km/h (2 Bft)
19.08.2014 06:08 11,4 C 10,6 C 96 % 1008,6 hPa 0,0 l/m 0 min 0 min 0,0 UV-I 0 W/m 0,0 km/h (0 Bft)
19.08.2014 06:10 11,4 C 10,6 C 96 % 1008,7 hPa 0,0 l/m 0 min 0 min 0,0 UV-I 0 W/m 14,2 km/h (3 Bft)
19.08.2014 06:12 11,4 C 10,6 C 97 % 1008,7 hPa 0,0 l/m 0 min 0 min 0,0 UV-I 0 W/m 0,0 km/h (0 Bft)
19.08.2014 06:14 11,4 C 10,6 C 97 % 1008,6 hPa 0,0 l/m 0 min 0 min 0,0 UV-I 0 W/m 0,0 km/h (0 Bft)
19.08.2014 06:16 11,4 C 10,6 C 97 % 1008,6 hPa 0,0 l/m 0 min 0 min 0,0 UV-I 0 W/m 14,2 km/h (3 Bft)
19.08.2014 06:18 11,4 C 10,6 C 97 % 1008,6 hPa 0,0 l/m 0 min 0 min 0,0 UV-I 0 W/m 14,2 km/h (3 Bft)
19.08.2014 06:20 11,5 C 10,6 C 97 % 1008,6 hPa 0,0 l/m 0 min 0 min 0,0 UV-I 0 W/m 14,2 km/h (3 Bft)
19.08.2014 06:22 11,5 C 10,6 C 97 % 1008,6 hPa 0,0 l/m 0 min 0 min 0,0 UV-I 0 W/m 3,5 km/h (1 Bft)
19.08.2014 06:24 11,5 C 10,6 C 97 % 1008,6 hPa 0,0 l/m 0 min 0 min 0,0 UV-I 0 W/m 0,0 km/h (0 Bft)
19.08.2014 06:26 11,6 C 10,6 C 97 % 1008,6 hPa 0,0 l/m 0 min 0 min 0,0 UV-I 0 W/m 14,2 km/h (3 Bft)
19.08.2014 06:28 11,6 C 10,6 C 96 % 1008,6 hPa 0,0 l/m 0 min 0 min 0,0 UV-I 0 W/m 14,2 km/h (3 Bft)
19.08.2014 06:30 11,6 C 10,6 C 96 % 1008,6 hPa 0,0 l/m 0 min 0 min 0,0 UV-I 0 W/m 21,3 km/h (4 Bft)
19.08.2014 06:32 11,6 C 10,6 C 96 % 1008,6 hPa 0,0 l/m 0 min 0 min 0,0 UV-I 0 W/m 17,7 km/h (3 Bft)
19.08.2014 06:34 11,6 C 10,6 C 96 % 1008,6 hPa 0,0 l/m 0 min 0 min 0,0 UV-I 0 W/m 21,3 km/h (4 Bft)
19.08.2014 06:36 11,6 C 10,6 C 96 % 1008,6 hPa 0,0 l/m 0 min 0 min 0,0 UV-I 1 W/m 17,7 km/h (3 Bft)
19.08.2014 06:38 11,6 C 10,6 C 96 % 1008,6 hPa 0,0 l/m 0 min 0 min 0,0 UV-I 5 W/m 24,7 km/h (4 Bft)
19.08.2014 06:40 11,6 C 10,6 C 96 % 1008,6 hPa 0,0 l/m 0 min 0 min 0,0 UV-I 7 W/m 24,7 km/h (4 Bft)
19.08.2014 06:42 11,6 C 10,6 C 96 % 1008,6 hPa 0,0 l/m 0 min 0 min 0,0 UV-I 8 W/m 7,1 km/h (2 Bft)
19.08.2014 06:44 11,7 C 10,6 C 96 % 1008,6 hPa 0,0 l/m 0 min 0 min 0,0 UV-I 9 W/m 14,2 km/h (3 Bft)
19.08.2014 06:46 11,7 C 10,6 C 96 % 1008,6 hPa 0,0 l/m 0 min 0 min 0,0 UV-I 11 W/m 17,7 km/h (3 Bft)
19.08.2014 06:48 11,7 C 10,6 C 96 % 1008,6 hPa 0,0 l/m 0 min 0 min 0,0 UV-I 11 W/m 21,3 km/h (4 Bft)
19.08.2014 06:50 11,7 C 10,6 C 96 % 1008,6 hPa 0,0 l/m 0 min 0 min 0,0 UV-I 11 W/m 24,7 km/h (4 Bft)
19.08.2014 06:52 11,7 C 10,6 C 96 % 1008,6 hPa 0,0 l/m 0 min 0 min 0,0 UV-I 11 W/m 28,2 km/h (4 Bft)
19.08.2014 06:54 11,7 C 10,6 C 96 % 1008,6 hPa 0,0 l/m 0 min 0 min 0,0 UV-I 11 W/m 21,3 km/h (4 Bft)
19.08.2014 06:56 11,7 C 10,6 C 96 % 1008,6 hPa 0,0 l/m 0 min 0 min 0,0 UV-I 13 W/m 21,3 km/h (4 Bft)
19.08.2014 06:58 11,7 C 10,6 C 96 % 1008,6 hPa 0,0 l/m 0 min 0 min 0,0 UV-I 18 W/m 17,7 km/h (3 Bft)
19.08.2014 07:00 11,7 C 10,6 C 96 % 1008,6 hPa 0,0 l/m 0 min 0 min 0,0 UV-I 23 W/m 28,2 km/h (4 Bft)
19.08.2014 07:02 11,7 C 10,6 C 96 % 1008,7 hPa 0,0 l/m 0 min 0 min 0,0 UV-I 25 W/m 17,7 km/h (3 Bft)
19.08.2014 07:04 11,7 C 10,6 C 96 % 1008,6 hPa 0,0 l/m 0 min 0 min 0,0 UV-I 25 W/m 21,3 km/h (4 Bft)
19.08.2014 07:06 11,7 C 10,6 C 96 % 1008,6 hPa 0,0 l/m 0 min 0 min 0,0 UV-I 22 W/m 10,7 km/h (2 Bft)
19.08.2014 07:08 11,7 C 10,6 C 96 % 1008,6 hPa 0,0 l/m 0 min 2 min 0,0 UV-I 19 W/m 7,1 km/h (2 Bft)
19.08.2014 07:10 11,8 C 10,6 C 96 % 1008,7 hPa 0,0 l/m 0 min 2 min 0,0 UV-I 18 W/m 17,7 km/h (3 Bft)
19.08.2014 07:12 11,8 C 10,6 C 96 % 1008,7 hPa 0,0 l/m 0 min 2 min 0,0 UV-I 15 W/m 17,7 km/h (3 Bft)
19.08.2014 07:14 11,8 C 10,6 C 96 % 1008,7 hPa 0,2 l/m 0 min 2 min 0,0 UV-I 12 W/m 7,1 km/h (2 Bft)
19.08.2014 07:16 11,8 C 10,6 C 96 % 1008,8 hPa 0,2 l/m 0 min 2 min 0,0 UV-I 11 W/m 17,7 km/h (3 Bft)
19.08.2014 07:18 11,8 C 10,6 C 96 % 1008,7 hPa 0,2 l/m 0 min 2 min 0,0 UV-I 9 W/m 21,3 km/h (4 Bft)
19.08.2014 07:20 11,8 C 10,6 C 96 % 1008,7 hPa 0,0 l/m 0 min 2 min 0,0 UV-I 9 W/m 10,7 km/h (2 Bft)
19.08.2014 07:22 11,8 C 10,6 C 96 % 1008,6 hPa 0,0 l/m 0 min 2 min 0,0 UV-I 10 W/m 10,7 km/h (2 Bft)
19.08.2014 07:24 11,8 C 10,6 C 96 % 1008,7 hPa 0,0 l/m 0 min 2 min 0,0 UV-I 17 W/m 14,2 km/h (3 Bft)
19.08.2014 07:26 11,8 C 10,6 C 96 % 1008,6 hPa 0,0 l/m 0 min 0 min 0,0 UV-I 28 W/m 10,7 km/h (2 Bft)
19.08.2014 07:28 11,9 C 10,6 C 96 % 1008,6 hPa 0,0 l/m 0 min 0 min 0,0 UV-I 38 W/m 14,2 km/h (3 Bft)
19.08.2014 07:30 11,9 C 10,6 C 96 % 1008,6 hPa 0,0 l/m 0 min 0 min 0,0 UV-I 47 W/m 10,7 km/h (2 Bft)
19.08.2014 07:32 11,9 C 10,6 C 96 % 1008,7 hPa 0,0 l/m 0 min 0 min 0,0 UV-I 48 W/m 21,3 km/h (4 Bft)
19.08.2014 07:34 11,9 C 10,6 C 96 % 1008,6 hPa 0,0 l/m 0 min 0 min 0,0 UV-I 50 W/m 17,7 km/h (3 Bft)
19.08.2014 07:36 12,0 C 10,6 C 96 % 1008,7 hPa 0,0 l/m 0 min 0 min 0,0 UV-I 49 W/m 10,7 km/h (2 Bft)
19.08.2014 07:38 12,0 C 11,1 C 96 % 1008,7 hPa 0,0 l/m 0 min 0 min 0,0 UV-I 51 W/m 21,3 km/h (4 Bft)
19.08.2014 07:40 12,1 C 11,1 C 96 % 1008,8 hPa 0,0 l/m 0 min 2 min 0,0 UV-I 32 W/m 14,2 km/h (3 Bft)
19.08.2014 07:42 12,1 C 11,1 C 96 % 1008,8 hPa 0,0 l/m 0 min 2 min 0,0 UV-I 17 W/m 10,7 km/h (2 Bft)
19.08.2014 07:44 12,1 C 11,1 C 96 % 1008,9 hPa 0,2 l/m 0 min 2 min 0,0 UV-I 13 W/m 3,5 km/h (1 Bft)
19.08.2014 07:46 12,1 C 11,1 C 96 % 1009,0 hPa 0,0 l/m 0 min 2 min 0,0 UV-I 11 W/m 0,0 km/h (0 Bft)
19.08.2014 07:48 12,1 C 11,1 C 96 % 1009,0 hPa 0,2 l/m 0 min 2 min 0,0 UV-I 13 W/m 0,0 km/h (0 Bft)
19.08.2014 07:50 12,1 C 11,1 C 96 % 1009,0 hPa 0,0 l/m 0 min 2 min 0,0 UV-I 14 W/m 0,0 km/h (0 Bft)
19.08.2014 07:52 12,1 C 11,1 C 96 % 1009,0 hPa 0,0 l/m 0 min 2 min 0,0 UV-I 15 W/m 0,0 km/h (0 Bft)
19.08.2014 07:54 12,1 C 11,1 C 96 % 1009,0 hPa 0,4 l/m 0 min 2 min 0,0 UV-I 18 W/m 17,7 km/h (3 Bft)
19.08.2014 07:56 12,1 C 11,1 C 96 % 1009,1 hPa 0,0 l/m 0 min 2 min 0,0 UV-I 19 W/m 14,2 km/h (3 Bft)
19.08.2014 07:58 12,2 C 11,1 C 96 % 1009,0 hPa 0,0 l/m 0 min 2 min 0,0 UV-I 16 W/m 17,7 km/h (3 Bft)
19.08.2014 08:00 12,2 C 11,1 C 96 % 1008,9 hPa 0,0 l/m 0 min 2 min 0,0 UV-I 14 W/m 31,7 km/h (5 Bft)
19.08.2014 08:02 12,2 C 11,1 C 96 % 1008,8 hPa 0,2 l/m 0 min 2 min 0,0 UV-I 15 W/m 24,7 km/h (4 Bft)
19.08.2014 08:04 12,2 C 11,1 C 96 % 1008,8 hPa 0,2 l/m 0 min 2 min 0,0 UV-I 19 W/m 24,7 km/h (4 Bft)
19.08.2014 08:06 12,2 C 11,1 C 96 % 1009,0 hPa 0,2 l/m 0 min 2 min 0,0 UV-I 28 W/m 28,2 km/h (4 Bft)
19.08.2014 08:08 12,2 C 11,1 C 96 % 1009,0 hPa 0,0 l/m 0 min 2 min 0,0 UV-I 38 W/m 24,7 km/h (4 Bft)
19.08.2014 08:10 12,2 C 11,1 C 96 % 1008,9 hPa 0,0 l/m 0 min 0 min 0,0 UV-I 39 W/m 28,2 km/h (4 Bft)
19.08.2014 08:12 12,2 C 11,1 C 96 % 1008,9 hPa 0,0 l/m 0 min 0 min 0,0 UV-I 35 W/m 14,2 km/h (3 Bft)
19.08.2014 08:14 12,3 C 11,1 C 96 % 1009,1 hPa 0,0 l/m 0 min 0 min 0,0 UV-I 33 W/m 21,3 km/h (4 Bft)
19.08.2014 08:16 12,3 C 11,1 C 96 % 1009,0 hPa 0,0 l/m 0 min 0 min 0,0 UV-I 32 W/m 17,7 km/h (3 Bft)
19.08.2014 08:18 12,3 C 11,1 C 96 % 1009,1 hPa 0,0 l/m 0 min 0 min 0,0 UV-I 36 W/m 21,3 km/h (4 Bft)
19.08.2014 08:20 12,3 C 11,1 C 96 % 1009,1 hPa 0,0 l/m 0 min 0 min 0,0 UV-I 31 W/m 28,2 km/h (4 Bft)
19.08.2014 08:22 12,3 C 11,1 C 96 % 1009,1 hPa 0,0 l/m 0 min 0 min 0,0 UV-I 30 W/m 28,2 km/h (4 Bft)
19.08.2014 08:24 12,3 C 11,1 C 96 % 1009,0 hPa 0,0 l/m 0 min 0 min 0,0 UV-I 29 W/m 21,3 km/h (4 Bft)
19.08.2014 08:26 12,3 C 11,1 C 96 % 1008,9 hPa 0,0 l/m 0 min 0 min 0,0 UV-I 32 W/m 28,2 km/h (4 Bft)
19.08.2014 08:28 12,3 C 11,1 C 96 % 1008,9 hPa 0,0 l/m 0 min 0 min 0,0 UV-I 36 W/m 17,7 km/h (3 Bft)
19.08.2014 08:30 12,3 C 11,1 C 96 % 1008,9 hPa 0,0 l/m 0 min 0 min 0,0 UV-I 39 W/m 35,4 km/h (5 Bft)
19.08.2014 08:32 12,3 C 11,1 C 96 % 1008,8 hPa 0,0 l/m 0 min 0 min 0,0 UV-I 41 W/m 28,2 km/h (4 Bft)
19.08.2014 08:34 12,3 C 11,1 C 97 % 1008,8 hPa 0,0 l/m 0 min 0 min 0,0 UV-I 54 W/m 21,3 km/h (4 Bft)
19.08.2014 08:36 12,3 C 11,1 C 97 % 1008,9 hPa 0,0 l/m 0 min 0 min 0,0 UV-I 76 W/m 21,3 km/h (4 Bft)
19.08.2014 08:38 12,4 C 11,7 C 97 % 1008,9 hPa 0,0 l/m 0 min 0 min 0,0 UV-I 95 W/m 24,7 km/h (4 Bft)
19.08.2014 08:40 12,4 C 11,7 C 97 % 1009,0 hPa 0,0 l/m 0 min 0 min 0,0 UV-I 103 W/m 31,7 km/h (5 Bft)
19.08.2014 08:42 12,5 C 11,7 C 97 % 1008,9 hPa 0,0 l/m 0 min 0 min 0,0 UV-I 100 W/m 24,7 km/h (4 Bft)
19.08.2014 08:44 12,6 C 11,7 C 97 % 1008,9 hPa 0,0 l/m 0 min 0 min 0,0 UV-I 90 W/m 17,7 km/h (3 Bft)
19.08.2014 08:46 12,6 C 11,7 C 97 % 1008,9 hPa 0,0 l/m 0 min 0 min 0,0 UV-I 79 W/m 28,2 km/h (4 Bft)
19.08.2014 08:48 12,6 C 11,7 C 97 % 1008,9 hPa 0,0 l/m 0 min 0 min 0,0 UV-I 82 W/m 21,3 km/h (4 Bft)
19.08.2014 08:50 12,6 C 11,7 C 97 % 1008,8 hPa 0,0 l/m 0 min 0 min 0,0 UV-I 80 W/m 24,7 km/h (4 Bft)
19.08.2014 08:52 12,7 C 11,7 C 97 % 1008,8 hPa 0,0 l/m 0 min 0 min 0,0 UV-I 72 W/m 24,7 km/h (4 Bft)
19.08.2014 08:54 12,6 C 11,7 C 97 % 1008,8 hPa 0,0 l/m 0 min 0 min 0,0 UV-I 60 W/m 28,2 km/h (4 Bft)
19.08.2014 08:56 12,6 C 11,7 C 97 % 1008,8 hPa 0,0 l/m 0 min 0 min 0,0 UV-I 50 W/m 24,7 km/h (4 Bft)
19.08.2014 08:58 12,6 C 11,7 C 97 % 1008,8 hPa 0,0 l/m 0 min 0 min 0,0 UV-I 42 W/m 24,7 km/h (4 Bft)
19.08.2014 09:00 12,6 C 11,7 C 97 % 1008,7 hPa 0,0 l/m 0 min 0 min 0,0 UV-I 42 W/m 24,7 km/h (4 Bft)
19.08.2014 09:02 12,6 C 11,7 C 97 % 1008,8 hPa 0,0 l/m 0 min 0 min 0,0 UV-I 54 W/m 28,2 km/h (4 Bft)
19.08.2014 09:04 12,6 C 11,7 C 97 % 1008,7 hPa 0,0 l/m 0 min 0 min 0,0 UV-I 70 W/m 17,7 km/h (3 Bft)
19.08.2014 09:06 12,6 C 11,7 C 97 % 1008,7 hPa 0,0 l/m 0 min 0 min 0,0 UV-I 91 W/m 21,3 km/h (4 Bft)
19.08.2014 09:08 12,7 C 11,7 C 97 % 1008,7 hPa 0,0 l/m 0 min 0 min 0,0 UV-I 103 W/m 21,3 km/h (4 Bft)
19.08.2014 09:10 12,7 C 12,2 C 97 % 1008,8 hPa 0,0 l/m 0 min 0 min 0,0 UV-I 102 W/m 24,7 km/h (4 Bft)
19.08.2014 09:12 12,7 C 12,2 C 97 % 1008,8 hPa 0,0 l/m 0 min 0 min 0,0 UV-I 86 W/m 35,4 km/h (5 Bft)
19.08.2014 09:14 12,7 C 11,7 C 97 % 1008,8 hPa 0,0 l/m 0 min 0 min 0,0 UV-I 78 W/m 38,9 km/h (6 Bft)
19.08.2014 09:16 12,7 C 11,7 C 97 % 1008,8 hPa 0,0 l/m 0 min 0 min 0,0 UV-I 86 W/m 31,7 km/h (5 Bft)
19.08.2014 09:18 12,7 C 12,2 C 97 % 1008,9 hPa 0,0 l/m 0 min 2 min 0,0 UV-I 102 W/m 46,0 km/h (6 Bft)
19.08.2014 09:20 12,8 C 12,2 C 97 % 1008,8 hPa 0,0 l/m 0 min 2 min 0,0 UV-I 114 W/m 46,0 km/h (6 Bft)
19.08.2014 09:22 12,8 C 12,2 C 97 % 1008,8 hPa 0,0 l/m 0 min 0 min 0,0 UV-I 128 W/m 31,7 km/h (5 Bft)
19.08.2014 09:24 12,8 C 12,2 C 97 % 1008,8 hPa 0,0 l/m 0 min 0 min 0,0 UV-I 119 W/m 38,9 km/h (6 Bft)
19.08.2014 09:26 12,9 C 12,2 C 97 % 1008,8 hPa 0,0 l/m 0 min 0 min 0,0 UV-I 105 W/m 31,7 km/h (5 Bft)
19.08.2014 09:28 12,9 C 12,2 C 97 % 1008,8 hPa 0,0 l/m 0 min 0 min 0,0 UV-I 89 W/m 28,2 km/h (4 Bft)
19.08.2014 09:30 12,9 C 12,2 C 97 % 1008,8 hPa 0,0 l/m 0 min 0 min 0,0 UV-I 79 W/m 46,0 km/h (6 Bft)
19.08.2014 09:32 12,9 C 12,2 C 97 % 1008,9 hPa 0,0 l/m 0 min 0 min 0,0 UV-I 78 W/m 38,9 km/h (6 Bft)
19.08.2014 09:34 12,9 C 12,2 C 97 % 1008,9 hPa 0,0 l/m 0 min 0 min 0,0 UV-I 88 W/m 31,7 km/h (5 Bft)
19.08.2014 09:36 12,9 C 12,2 C 97 % 1008,8 hPa 0,0 l/m 0 min 0 min 0,0 UV-I 113 W/m 35,4 km/h (5 Bft)
19.08.2014 09:38 12,9 C 12,2 C 97 % 1008,9 hPa 0,0 l/m 0 min 0 min 0,0 UV-I 147 W/m 31,7 km/h (5 Bft)
19.08.2014 09:40 13,0 C 12,2 C 97 % 1008,9 hPa 0,0 l/m 0 min 0 min 0,0 UV-I 140 W/m 31,7 km/h (5 Bft)
19.08.2014 09:42 13,1 C 12,2 C 97 % 1008,9 hPa 0,0 l/m 0 min 0 min 0,0 UV-I 110 W/m 24,7 km/h (4 Bft)
19.08.2014 09:44 13,0 C 12,2 C 97 % 1008,9 hPa 0,0 l/m 0 min 0 min 0,0 UV-I 98 W/m 42,4 km/h (6 Bft)
19.08.2014 09:46 13,0 C 12,2 C 97 % 1008,9 hPa 0,0 l/m 0 min 0 min 0,0 UV-I 94 W/m 24,7 km/h (4 Bft)
19.08.2014 09:48 13,1 C 12,2 C 96 % 1009,0 hPa 0,0 l/m 0 min 0 min 0,0 UV-I 94 W/m 35,4 km/h (5 Bft)
19.08.2014 09:50 13,1 C 12,2 C 96 % 1009,0 hPa 0,0 l/m 0 min 0 min 0,0 UV-I 102 W/m 35,4 km/h (5 Bft)
19.08.2014 09:52 13,1 C 12,2 C 96 % 1008,9 hPa 0,0 l/m 0 min 0 min 0,0 UV-I 96 W/m 38,9 km/h (6 Bft)
19.08.2014 09:54 13,1 C 12,2 C 96 % 1009,0 hPa 0,0 l/m 0 min 0 min 0,0 UV-I 92 W/m 46,0 km/h (6 Bft)
19.08.2014 09:56 13,1 C 12,2 C 96 % 1009,0 hPa 0,0 l/m 0 min 0 min 0,0 UV-I 96 W/m 31,7 km/h (5 Bft)
19.08.2014 09:58 13,1 C 12,2 C 96 % 1009,0 hPa 0,0 l/m 0 min 0 min 0,0 UV-I 103 W/m 38,9 km/h (6 Bft)
19.08.2014 10:00 13,2 C 12,2 C 96 % 1009,1 hPa 0,0 l/m 0 min 0 min 0,0 UV-I 102 W/m 28,2 km/h (4 Bft)
19.08.2014 10:02 13,2 C 12,2 C 96 % 1009,0 hPa 0,0 l/m 0 min 0 min 0,0 UV-I 101 W/m 28,2 km/h (4 Bft)
19.08.2014 10:04 13,2 C 12,2 C 96 % 1009,0 hPa 0,0 l/m 0 min 0 min 0,0 UV-I 109 W/m 24,7 km/h (4 Bft)
19.08.2014 10:06 13,2 C 12,2 C 96 % 1008,9 hPa 0,0 l/m 0 min 0 min 0,0 UV-I 113 W/m 28,2 km/h (4 Bft)
19.08.2014 10:08 13,2 C 12,2 C 96 % 1008,9 hPa 0,0 l/m 0 min 0 min 0,0 UV-I 107 W/m 35,4 km/h (5 Bft)
19.08.2014 10:10 13,2 C 12,2 C 96 % 1008,8 hPa 0,0 l/m 0 min 0 min 0,0 UV-I 111 W/m 35,4 km/h (5 Bft)
19.08.2014 10:12 13,3 C 12,2 C 96 % 1008,9 hPa 0,0 l/m 0 min 0 min 0,0 UV-I 122 W/m 28,2 km/h (4 Bft)
19.08.2014 10:14 13,3 C 12,8 C 96 % 1009,0 hPa 0,0 l/m 0 min 0 min 0,0 UV-I 131 W/m 24,7 km/h (4 Bft)
19.08.2014 10:16 13,3 C 12,8 C 96 % 1009,0 hPa 0,0 l/m 0 min 0 min 0,0 UV-I 128 W/m 28,2 km/h (4 Bft)
19.08.2014 10:18 13,4 C 12,8 C 96 % 1009,0 hPa 0,0 l/m 0 min 0 min 0,0 UV-I 126 W/m 35,4 km/h (5 Bft)
19.08.2014 10:20 13,4 C 12,8 C 96 % 1009,1 hPa 0,0 l/m 0 min 0 min 0,0 UV-I 130 W/m 31,7 km/h (5 Bft)
19.08.2014 10:22 13,4 C 12,8 C 96 % 1009,1 hPa 0,0 l/m 0 min 0 min 0,0 UV-I 146 W/m 24,7 km/h (4 Bft)
19.08.2014 10:24 13,6 C 12,8 C 96 % 1009,1 hPa 0,0 l/m 0 min 0 min 0,1 UV-I 174 W/m 24,7 km/h (4 Bft)
19.08.2014 10:26 13,6 C 12,8 C 96 % 1009,1 hPa 0,0 l/m 0 min 0 min 0,5 UV-I 194 W/m 21,3 km/h (4 Bft)
19.08.2014 10:28 13,7 C 12,8 C 95 % 1009,1 hPa 0,0 l/m 0 min 0 min 0,6 UV-I 203 W/m 24,7 km/h (4 Bft)
19.08.2014 10:30 13,8 C 13,3 C 95 % 1009,1 hPa 0,0 l/m 0 min 0 min 0,2 UV-I 182 W/m 0,0 km/h (0 Bft)
19.08.2014 10:32 13,9 C 13,3 C 96 % 1009,1 hPa 0,0 l/m 0 min 0 min 0,0 UV-I 170 W/m 21,3 km/h (4 Bft)
19.08.2014 10:34 13,9 C 13,3 C 96 % 1009,1 hPa 0,0 l/m 0 min 0 min 0,0 UV-I 166 W/m 24,7 km/h (4 Bft)
19.08.2014 10:36 14,0 C 13,3 C 95 % 1009,1 hPa 0,0 l/m 0 min 0 min 0,0 UV-I 155 W/m 28,2 km/h (4 Bft)
19.08.2014 10:38 14,1 C 13,3 C 95 % 1009,2 hPa 0,0 l/m 0 min 0 min 0,0 UV-I 163 W/m 24,7 km/h (4 Bft)
19.08.2014 10:40 14,0 C 13,3 C 95 % 1009,2 hPa 0,0 l/m 0 min 0 min 0,0 UV-I 166 W/m 21,3 km/h (4 Bft)
19.08.2014 10:42 14,1 C 13,3 C 95 % 1009,2 hPa 0,0 l/m 0 min 0 min 0,0 UV-I 167 W/m 28,2 km/h (4 Bft)
19.08.2014 10:44 14,1 C 13,3 C 95 % 1009,2 hPa 0,0 l/m 0 min 0 min 0,0 UV-I 168 W/m 24,7 km/h (4 Bft)
19.08.2014 10:46 14,2 C 13,3 C 95 % 1009,2 hPa 0,0 l/m 0 min 0 min 0,0 UV-I 166 W/m 31,7 km/h (5 Bft)
19.08.2014 10:48 14,2 C 13,3 C 95 % 1009,2 hPa 0,0 l/m 0 min 0 min 0,0 UV-I 170 W/m 24,7 km/h (4 Bft)
19.08.2014 10:50 14,2 C 13,3 C 94 % 1009,3 hPa 0,0 l/m 0 min 0 min 0,0 UV-I 163 W/m 24,7 km/h (4 Bft)
19.08.2014 10:52 14,2 C 13,3 C 94 % 1009,3 hPa 0,0 l/m 0 min 0 min 0,0 UV-I 131 W/m 31,7 km/h (5 Bft)
19.08.2014 10:54 14,2 C 12,8 C 94 % 1009,3 hPa 0,0 l/m 0 min 0 min 0,0 UV-I 114 W/m 35,4 km/h (5 Bft)
19.08.2014 10:56 14,1 C 12,8 C 94 % 1009,3 hPa 0,0 l/m 0 min 0 min 0,0 UV-I 93 W/m 35,4 km/h (5 Bft)
19.08.2014 10:58 14,1 C 12,8 C 94 % 1009,3 hPa 0,0 l/m 0 min 0 min 0,0 UV-I 87 W/m 42,4 km/h (6 Bft)
19.08.2014 11:00 14,0 C 12,8 C 93 % 1009,3 hPa 0,0 l/m 0 min 0 min 0,0 UV-I 76 W/m 31,7 km/h (5 Bft)
19.08.2014 11:02 14,0 C 12,8 C 93 % 1009,3 hPa 0,0 l/m 0 min 0 min 0,0 UV-I 76 W/m 31,7 km/h (5 Bft)
19.08.2014 11:04 13,9 C 12,8 C 93 % 1009,3 hPa 0,0 l/m 0 min 0 min 0,0 UV-I 89 W/m 24,7 km/h (4 Bft)
19.08.2014 11:06 13,9 C 12,8 C 93 % 1009,3 hPa 0,0 l/m 0 min 0 min 0,0 UV-I 100 W/m 31,7 km/h (5 Bft)
19.08.2014 11:08 13,9 C 12,8 C 93 % 1009,3 hPa 0,0 l/m 0 min 0 min 0,0 UV-I 103 W/m 24,7 km/h (4 Bft)
19.08.2014 11:10 14,0 C 12,8 C 93 % 1009,2 hPa 0,0 l/m 0 min 0 min 0,0 UV-I 113 W/m 31,7 km/h (5 Bft)
19.08.2014 11:12 14,0 C 12,8 C 93 % 1009,3 hPa 0,0 l/m 0 min 0 min 0,0 UV-I 109 W/m 35,4 km/h (5 Bft)
19.08.2014 11:14 14,0 C 12,8 C 93 % 1009,2 hPa 0,0 l/m 0 min 0 min 0,0 UV-I 138 W/m 35,4 km/h (5 Bft)
19.08.2014 11:16 14,1 C 12,8 C 93 % 1009,3 hPa 0,0 l/m 0 min 0 min 0,3 UV-I 159 W/m 31,7 km/h (5 Bft)
19.08.2014 11:18 14,2 C 13,3 C 93 % 1009,3 hPa 0,0 l/m 0 min 0 min 0,5 UV-I 178 W/m 28,2 km/h (4 Bft)
19.08.2014 11:20 14,2 C 13,3 C 93 % 1009,3 hPa 0,0 l/m 0 min 0 min 0,6 UV-I 185 W/m 35,4 km/h (5 Bft)
19.08.2014 11:22 14,2 C 13,3 C 93 % 1009,2 hPa 0,0 l/m 0 min 0 min 0,0 UV-I 159 W/m 31,7 km/h (5 Bft)
19.08.2014 11:24 14,2 C 13,3 C 93 % 1009,3 hPa 0,0 l/m 0 min 0 min 0,0 UV-I 146 W/m 21,3 km/h (4 Bft)
19.08.2014 11:26 14,2 C 13,3 C 93 % 1009,3 hPa 0,0 l/m 0 min 0 min 0,0 UV-I 140 W/m 42,4 km/h (6 Bft)
19.08.2014 11:28 14,2 C 13,3 C 93 % 1009,3 hPa 0,0 l/m 0 min 0 min 0,0 UV-I 148 W/m 42,4 km/h (6 Bft)
19.08.2014 11:30 14,2 C 13,3 C 93 % 1009,3 hPa 0,0 l/m 0 min 0 min 0,0 UV-I 142 W/m 38,9 km/h (6 Bft)
19.08.2014 11:32 14,2 C 13,3 C 92 % 1009,3 hPa 0,0 l/m 0 min 0 min 0,0 UV-I 146 W/m 56,5 km/h (7 Bft)
19.08.2014 11:34 14,2 C 13,3 C 92 % 1009,3 hPa 0,0 l/m 0 min 0 min 0,5 UV-I 167 W/m 35,4 km/h (5 Bft)
19.08.2014 11:36 14,2 C 13,3 C 92 % 1009,2 hPa 0,0 l/m 0 min 0 min 0,5 UV-I 170 W/m 35,4 km/h (5 Bft)
19.08.2014 11:38 14,2 C 13,3 C 92 % 1009,2 hPa 0,0 l/m 0 min 0 min 0,6 UV-I 189 W/m 53,0 km/h (7 Bft)
19.08.2014 11:40 14,2 C 13,3 C 92 % 1009,3 hPa 0,0 l/m 0 min 0 min 0,5 UV-I 177 W/m 38,9 km/h (6 Bft)
19.08.2014 11:42 14,2 C 13,3 C 92 % 1009,3 hPa 0,0 l/m 0 min 0 min 0,0 UV-I 149 W/m 31,7 km/h (5 Bft)
19.08.2014 11:44 14,2 C 13,3 C 92 % 1009,3 hPa 0,0 l/m 0 min 0 min 0,0 UV-I 126 W/m 42,4 km/h (6 Bft)
19.08.2014 11:46 14,2 C 12,8 C 92 % 1009,4 hPa 0,0 l/m 0 min 0 min 0,0 UV-I 112 W/m 31,7 km/h (5 Bft)
19.08.2014 11:48 14,2 C 12,8 C 92 % 1009,4 hPa 0,0 l/m 0 min 0 min 0,0 UV-I 115 W/m 38,9 km/h (6 Bft)
19.08.2014 11:50 14,2 C 12,8 C 92 % 1009,4 hPa 0,0 l/m 0 min 0 min 0,0 UV-I 101 W/m 53,0 km/h (7 Bft)
19.08.2014 11:52 14,2 C 12,8 C 92 % 1009,4 hPa 0,0 l/m 0 min 0 min 0,0 UV-I 124 W/m 28,2 km/h (4 Bft)
19.08.2014 11:54 14,2 C 12,8 C 92 % 1009,4 hPa 0,0 l/m 0 min 0 min 0,0 UV-I 124 W/m 35,4 km/h (5 Bft)
19.08.2014 11:56 14,2 C 12,8 C 92 % 1009,5 hPa 0,0 l/m 0 min 0 min 0,0 UV-I 122 W/m 35,4 km/h (5 Bft)
19.08.2014 11:58 14,2 C 13,3 C 92 % 1009,5 hPa 0,0 l/m 0 min 0 min 0,4 UV-I 167 W/m 28,2 km/h (4 Bft)
19.08.2014 12:00 14,3 C 13,3 C 92 % 1009,5 hPa 0,0 l/m 0 min 2 min 0,7 UV-I 183 W/m 38,9 km/h (6 Bft)
19.08.2014 12:02 14,4 C 13,3 C 92 % 1009,4 hPa 0,0 l/m 0 min 0 min 0,6 UV-I 176 W/m 31,7 km/h (5 Bft)
19.08.2014 12:06 14,4 C 13,3 C 92 % 1009,5 hPa 0,0 l/m 0 min 0 min 0,3 UV-I 137 W/m 35,4 km/h (5 Bft)
19.08.2014 12:08 14,4 C 13,3 C 92 % 1009,6 hPa 0,0 l/m 0 min 0 min 0,0 UV-I 81 W/m 24,7 km/h (4 Bft)
19.08.2014 12:10 14,4 C 13,3 C 92 % 1009,5 hPa 0,0 l/m 0 min 0 min 0,0 UV-I 82 W/m 53,0 km/h (7 Bft)
19.08.2014 12:12 14,3 C 12,8 C 91 % 1009,6 hPa 0,0 l/m 0 min 2 min 0,0 UV-I 77 W/m 46,0 km/h (6 Bft)
19.08.2014 12:14 14,3 C 12,8 C 91 % 1009,7 hPa 0,0 l/m 0 min 0 min 0,0 UV-I 78 W/m 24,7 km/h (4 Bft)
19.08.2014 12:16 14,3 C 13,3 C 91 % 1009,7 hPa 0,0 l/m 0 min 2 min 0,1 UV-I 131 W/m 24,7 km/h (4 Bft)
19.08.2014 12:18 14,3 C 13,3 C 91 % 1009,7 hPa 0,0 l/m 0 min 0 min 0,7 UV-I 184 W/m 21,3 km/h (4 Bft)
19.08.2014 12:20 14,4 C 13,3 C 92 % 1009,7 hPa 0,0 l/m 0 min 0 min 1,1 UV-I 249 W/m 31,7 km/h (5 Bft)
19.08.2014 12:22 14,5 C 13,9 C 92 % 1009,7 hPa 0,0 l/m 0 min 0 min 1,2 UV-I 254 W/m 35,4 km/h (5 Bft)
19.08.2014 12:24 14,6 C 13,9 C 91 % 1009,8 hPa 0,0 l/m 0 min 0 min 1,1 UV-I 229 W/m 49,5 km/h (6 Bft)
19.08.2014 12:26 14,6 C 13,9 C 91 % 1009,8 hPa 0,0 l/m 0 min 0 min 1,0 UV-I 217 W/m 38,9 km/h (6 Bft)
19.08.2014 12:28 14,7 C 13,9 C 90 % 1009,8 hPa 0,0 l/m 0 min 0 min 1,2 UV-I 251 W/m 42,4 km/h (6 Bft)
19.08.2014 12:30 14,7 C 13,9 C 90 % 1009,7 hPa 0,0 l/m 0 min 0 min 1,2 UV-I 265 W/m 38,9 km/h (6 Bft)
19.08.2014 12:32 14,8 C 13,9 C 90 % 1009,7 hPa 0,0 l/m 0 min 0 min 1,4 UV-I 288 W/m 28,2 km/h (4 Bft)
19.08.2014 12:34 14,8 C 13,9 C 89 % 1009,7 hPa 0,0 l/m 0 min 0 min 1,4 UV-I 285 W/m 31,7 km/h (5 Bft)
19.08.2014 12:36 15,0 C 13,9 C 90 % 1009,7 hPa 0,0 l/m 0 min 0 min 1,3 UV-I 272 W/m 21,3 km/h (4 Bft)
19.08.2014 12:38 15,0 C 13,9 C 90 % 1009,7 hPa 0,0 l/m 0 min 0 min 1,1 UV-I 246 W/m 49,5 km/h (6 Bft)
19.08.2014 12:40 15,0 C 13,9 C 88 % 1009,8 hPa 0,0 l/m 0 min 0 min 1,2 UV-I 265 W/m 28,2 km/h (4 Bft)
19.08.2014 12:42 15,0 C 13,9 C 88 % 1009,7 hPa 0,0 l/m 0 min 0 min 1,3 UV-I 263 W/m 31,7 km/h (5 Bft)
19.08.2014 12:44 15,1 C 14,4 C 88 % 1009,7 hPa 0,0 l/m 0 min 0 min 1,2 UV-I 258 W/m 35,4 km/h (5 Bft)
19.08.2014 12:46 15,2 C 14,4 C 88 % 1009,7 hPa 0,0 l/m 0 min 0 min 1,3 UV-I 265 W/m 31,7 km/h (5 Bft)
19.08.2014 12:48 15,2 C 14,4 C 87 % 1009,7 hPa 0,0 l/m 0 min 0 min 1,3 UV-I 267 W/m 31,7 km/h (5 Bft)
19.08.2014 12:50 15,2 C 14,4 C 88 % 1009,8 hPa 0,0 l/m 0 min 0 min 1,3 UV-I 264 W/m 38,9 km/h (6 Bft)
19.08.2014 12:52 15,3 C 14,4 C 87 % 1009,8 hPa 0,0 l/m 0 min 0 min 1,3 UV-I 251 W/m 42,4 km/h (6 Bft)
19.08.2014 12:54 15,2 C 14,4 C 85 % 1009,8 hPa 0,0 l/m 0 min 0 min 1,1 UV-I 235 W/m 38,9 km/h (6 Bft)
19.08.2014 12:56 15,1 C 14,4 C 84 % 1009,7 hPa 0,0 l/m 0 min 0 min 1,2 UV-I 240 W/m 46,0 km/h (6 Bft)
19.08.2014 12:58 15,1 C 14,4 C 84 % 1009,7 hPa 0,0 l/m 0 min 0 min 1,3 UV-I 248 W/m 53,0 km/h (7 Bft)
19.08.2014 13:00 15,1 C 14,4 C 84 % 1009,7 hPa 0,0 l/m 0 min 0 min 1,4 UV-I 261 W/m 31,7 km/h (5 Bft)
19.08.2014 13:02 15,1 C 14,4 C 84 % 1009,6 hPa 0,0 l/m 0 min 0 min 1,4 UV-I 263 W/m 53,0 km/h (7 Bft)
19.08.2014 13:04 15,1 C 14,4 C 84 % 1009,6 hPa 0,0 l/m 0 min 0 min 1,4 UV-I 261 W/m 49,5 km/h (6 Bft)
19.08.2014 13:06 15,1 C 13,9 C 84 % 1009,6 hPa 0,0 l/m 0 min 0 min 1,3 UV-I 246 W/m 56,5 km/h (7 Bft)
19.08.2014 13:08 15,0 C 13,9 C 84 % 1009,7 hPa 0,0 l/m 0 min 0 min 1,2 UV-I 240 W/m 49,5 km/h (6 Bft)
19.08.2014 13:10 15,1 C 13,9 C 85 % 1009,7 hPa 0,0 l/m 0 min 0 min 1,2 UV-I 238 W/m 28,2 km/h (4 Bft)
19.08.2014 13:12 15,1 C 14,4 C 85 % 1009,7 hPa 0,0 l/m 0 min 0 min 1,2 UV-I 241 W/m 60,2 km/h (7 Bft)
19.08.2014 13:14 15,0 C 14,4 C 84 % 1009,7 hPa 0,0 l/m 0 min 0 min 1,3 UV-I 243 W/m 46,0 km/h (6 Bft)
19.08.2014 13:16 15,1 C 14,4 C 84 % 1009,7 hPa 0,0 l/m 0 min 0 min 1,3 UV-I 244 W/m 28,2 km/h (4 Bft)
19.08.2014 13:18 15,0 C 14,4 C 84 % 1009,7 hPa 0,0 l/m 0 min 0 min 1,3 UV-I 244 W/m 42,4 km/h (6 Bft)
19.08.2014 13:20 15,0 C 14,4 C 84 % 1009,7 hPa 0,0 l/m 0 min 0 min 1,4 UV-I 256 W/m 35,4 km/h (5 Bft)
19.08.2014 13:22 15,1 C 14,4 C 85 % 1009,7 hPa 0,0 l/m 0 min 0 min 1,5 UV-I 264 W/m 35,4 km/h (5 Bft)
19.08.2014 13:24 15,1 C 14,4 C 84 % 1009,7 hPa 0,0 l/m 0 min 0 min 1,6 UV-I 278 W/m 46,0 km/h (6 Bft)
19.08.2014 13:26 15,2 C 14,4 C 84 % 1009,7 hPa 0,0 l/m 0 min 0 min 1,7 UV-I 307 W/m 56,5 km/h (7 Bft)
19.08.2014 13:28 15,2 C 15,0 C 83 % 1009,7 hPa 0,0 l/m 0 min 0 min 1,8 UV-I 305 W/m 46,0 km/h (6 Bft)
19.08.2014 13:30 15,3 C 15,0 C 83 % 1009,8 hPa 0,0 l/m 0 min 0 min 1,9 UV-I 328 W/m 56,5 km/h (7 Bft)
19.08.2014 13:32 15,3 C 15,0 C 82 % 1009,8 hPa 0,0 l/m 0 min 0 min 2,2 UV-I 369 W/m 49,5 km/h (6 Bft)
19.08.2014 13:34 15,3 C 15,0 C 82 % 1009,8 hPa 0,0 l/m 0 min 0 min 2,2 UV-I 380 W/m 53,0 km/h (7 Bft)
19.08.2014 13:36 15,5 C 15,0 C 82 % 1009,8 hPa 0,0 l/m 2 min 0 min 2,3 UV-I 424 W/m 31,7 km/h (5 Bft)
19.08.2014 13:38 15,7 C 15,6 C 82 % 1009,8 hPa 0,0 l/m 2 min 0 min 2,4 UV-I 477 W/m 31,7 km/h (5 Bft)
19.08.2014 13:40 15,8 C 15,6 C 81 % 1009,7 hPa 0,0 l/m 2 min 0 min 2,4 UV-I 443 W/m 53,0 km/h (7 Bft)
19.08.2014 13:42 15,9 C 15,6 C 80 % 1009,8 hPa 0,0 l/m 2 min 0 min 2,1 UV-I 402 W/m 60,2 km/h (7 Bft)
19.08.2014 13:44 15,9 C 15,6 C 80 % 1009,8 hPa 0,0 l/m 2 min 0 min 2,3 UV-I 401 W/m 49,5 km/h (6 Bft)
19.08.2014 13:46 16,0 C 15,6 C 80 % 1009,8 hPa 0,0 l/m 2 min 0 min 2,2 UV-I 416 W/m 53,0 km/h (7 Bft)
19.08.2014 13:48 16,0 C 15,6 C 79 % 1009,8 hPa 0,0 l/m 2 min 0 min 2,2 UV-I 424 W/m 38,9 km/h (6 Bft)
19.08.2014 13:50 16,1 C 15,6 C 80 % 1009,7 hPa 0,0 l/m 2 min 0 min 2,2 UV-I 412 W/m 60,2 km/h (7 Bft)
19.08.2014 13:52 16,1 C 15,6 C 78 % 1009,7 hPa 0,0 l/m 2 min 0 min 2,0 UV-I 410 W/m 63,7 km/h (8 Bft)
19.08.2014 13:54 16,1 C 15,6 C 78 % 1009,7 hPa 0,0 l/m 2 min 0 min 2,1 UV-I 415 W/m 49,5 km/h (6 Bft)
19.08.2014 13:56 16,2 C 16,1 C 78 % 1009,7 hPa 0,0 l/m 2 min 0 min 2,1 UV-I 406 W/m 38,9 km/h (6 Bft)
19.08.2014 13:58 16,2 C 16,1 C 78 % 1009,7 hPa 0,0 l/m 2 min 0 min 2,2 UV-I 413 W/m 46,0 km/h (6 Bft)
19.08.2014 14:00 16,2 C 16,1 C 79 % 1009,7 hPa 0,0 l/m 2 min 0 min 2,1 UV-I 421 W/m 31,7 km/h (5 Bft)
19.08.2014 14:02 16,3 C 16,1 C 78 % 1009,7 hPa 0,0 l/m 2 min 0 min 2,1 UV-I 411 W/m 42,4 km/h (6 Bft)
19.08.2014 14:04 16,3 C 16,1 C 78 % 1009,8 hPa 0,0 l/m 0 min 0 min 1,5 UV-I 315 W/m 35,4 km/h (5 Bft)
19.08.2014 14:06 16,2 C 15,6 C 77 % 1009,7 hPa 0,0 l/m 0 min 0 min 1,3 UV-I 267 W/m 42,4 km/h (6 Bft)
19.08.2014 14:08 16,1 C 15,6 C 77 % 1009,8 hPa 0,0 l/m 0 min 0 min 0,9 UV-I 207 W/m 38,9 km/h (6 Bft)
19.08.2014 14:10 16,0 C 15,0 C 77 % 1009,8 hPa 0,0 l/m 0 min 0 min 0,6 UV-I 179 W/m 56,5 km/h (7 Bft)
19.08.2014 14:12 15,9 C 15,0 C 78 % 1009,8 hPa 0,0 l/m 0 min 0 min 0,1 UV-I 169 W/m 42,4 km/h (6 Bft)
19.08.2014 14:14 15,8 C 15,0 C 77 % 1009,8 hPa 0,0 l/m 0 min 0 min 1,0 UV-I 244 W/m 53,0 km/h (7 Bft)
19.08.2014 14:16 15,7 C 15,0 C 77 % 1009,8 hPa 0,0 l/m 0 min 0 min 0,9 UV-I 217 W/m 38,9 km/h (6 Bft)
19.08.2014 14:18 15,7 C 15,0 C 78 % 1009,8 hPa 0,0 l/m 0 min 0 min 0,6 UV-I 199 W/m 31,7 km/h (5 Bft)
19.08.2014 14:20 15,7 C 15,0 C 79 % 1009,8 hPa 0,0 l/m 0 min 0 min 0,9 UV-I 249 W/m 24,7 km/h (4 Bft)
19.08.2014 14:22 15,8 C 15,0 C 79 % 1009,8 hPa 0,0 l/m 0 min 0 min 1,1 UV-I 289 W/m 49,5 km/h (6 Bft)
19.08.2014 14:24 15,9 C 15,0 C 78 % 1009,8 hPa 0,0 l/m 0 min 0 min 1,5 UV-I 345 W/m 49,5 km/h (6 Bft)
19.08.2014 14:26 16,0 C 15,6 C 78 % 1009,8 hPa 0,0 l/m 2 min 0 min 1,8 UV-I 385 W/m 42,4 km/h (6 Bft)
19.08.2014 14:28 16,1 C 15,6 C 77 % 1009,8 hPa 0,0 l/m 2 min 0 min 1,9 UV-I 393 W/m 49,5 km/h (6 Bft)
19.08.2014 14:30 16,2 C 15,6 C 76 % 1009,8 hPa 0,0 l/m 2 min 0 min 1,6 UV-I 373 W/m 56,5 km/h (7 Bft)
19.08.2014 14:32 16,3 C 15,6 C 73 % 1009,8 hPa 0,0 l/m 0 min 0 min 1,5 UV-I 335 W/m 53,0 km/h (7 Bft)
19.08.2014 14:34 16,3 C 15,6 C 72 % 1009,8 hPa 0,0 l/m 0 min 0 min 1,4 UV-I 294 W/m 42,4 km/h (6 Bft)
19.08.2014 14:36 16,3 C 15,6 C 73 % 1009,8 hPa 0,0 l/m 0 min 0 min 1,2 UV-I 266 W/m 35,4 km/h (5 Bft)
19.08.2014 14:38 16,3 C 15,6 C 73 % 1009,8 hPa 0,0 l/m 0 min 0 min 1,0 UV-I 243 W/m 46,0 km/h (6 Bft)
19.08.2014 14:40 16,2 C 15,6 C 74 % 1009,9 hPa 0,0 l/m 0 min 0 min 1,2 UV-I 267 W/m 31,7 km/h (5 Bft)
19.08.2014 14:42 16,3 C 15,6 C 74 % 1009,8 hPa 0,0 l/m 0 min 0 min 1,0 UV-I 234 W/m 42,4 km/h (6 Bft)
19.08.2014 14:44 16,2 C 15,6 C 74 % 1009,8 hPa 0,0 l/m 0 min 0 min 0,8 UV-I 206 W/m 49,5 km/h (6 Bft)
19.08.2014 14:46 16,2 C 15,6 C 74 % 1009,9 hPa 0,0 l/m 0 min 0 min 0,8 UV-I 220 W/m 38,9 km/h (6 Bft)
19.08.2014 14:48 16,2 C 15,6 C 74 % 1009,9 hPa 0,0 l/m 0 min 0 min 1,1 UV-I 253 W/m 67,1 km/h (8 Bft)
19.08.2014 14:50 16,2 C 15,6 C 74 % 1009,9 hPa 0,0 l/m 0 min 0 min 1,2 UV-I 285 W/m 42,4 km/h (6 Bft)
19.08.2014 14:52 16,2 C 15,6 C 74 % 1009,9 hPa 0,0 l/m 2 min 0 min 1,6 UV-I 373 W/m 46,0 km/h (6 Bft)
19.08.2014 14:54 16,3 C 15,6 C 73 % 1009,9 hPa 0,0 l/m 0 min 0 min 1,6 UV-I 351 W/m 56,5 km/h (7 Bft)
19.08.2014 14:56 16,4 C 16,1 C 74 % 1010,0 hPa 0,0 l/m 0 min 0 min 1,4 UV-I 306 W/m 46,0 km/h (6 Bft)
19.08.2014 14:58 16,4 C 16,1 C 73 % 1010,0 hPa 0,0 l/m 0 min 0 min 1,3 UV-I 299 W/m 60,2 km/h (7 Bft)
19.08.2014 15:00 16,4 C 16,1 C 73 % 1010,0 hPa 0,0 l/m 0 min 0 min 1,6 UV-I 361 W/m 42,4 km/h (6 Bft)
19.08.2014 15:02 16,5 C 16,1 C 73 % 1010,1 hPa 0,0 l/m 2 min 0 min 1,7 UV-I 366 W/m 28,2 km/h (4 Bft)
19.08.2014 15:04 16,5 C 16,1 C 71 % 1010,0 hPa 0,0 l/m 2 min 0 min 1,9 UV-I 398 W/m 63,7 km/h (8 Bft)
19.08.2014 15:06 16,7 C 16,7 C 70 % 1010,1 hPa 0,0 l/m 2 min 0 min 2,2 UV-I 450 W/m 56,5 km/h (7 Bft)
19.08.2014 15:08 16,7 C 16,1 C 69 % 1010,0 hPa 0,0 l/m 2 min 0 min 2,0 UV-I 437 W/m 53,0 km/h (7 Bft)
19.08.2014 15:10 16,7 C 16,1 C 68 % 1010,0 hPa 0,0 l/m 2 min 0 min 1,9 UV-I 408 W/m 46,0 km/h (6 Bft)
19.08.2014 15:12 16,6 C 16,1 C 68 % 1010,1 hPa 0,0 l/m 2 min 0 min 1,7 UV-I 358 W/m 56,5 km/h (7 Bft)
19.08.2014 15:14 16,4 C 16,1 C 68 % 1010,1 hPa 0,0 l/m 0 min 0 min 1,5 UV-I 326 W/m 60,2 km/h (7 Bft)
19.08.2014 15:16 16,4 C 16,1 C 70 % 1010,2 hPa 0,0 l/m 0 min 0 min 1,1 UV-I 259 W/m 35,4 km/h (5 Bft)
19.08.2014 15:18 16,3 C 15,6 C 70 % 1010,2 hPa 0,0 l/m 0 min 0 min 1,0 UV-I 252 W/m 42,4 km/h (6 Bft)
19.08.2014 15:20 16,2 C 15,6 C 70 % 1010,2 hPa 0,0 l/m 0 min 0 min 1,1 UV-I 255 W/m 53,0 km/h (7 Bft)
19.08.2014 15:22 16,2 C 15,6 C 70 % 1010,3 hPa 0,0 l/m 0 min 0 min 1,1 UV-I 268 W/m 42,4 km/h (6 Bft)
19.08.2014 15:24 16,2 C 15,6 C 72 % 1010,3 hPa 0,0 l/m 0 min 0 min 1,3 UV-I 305 W/m 49,5 km/h (6 Bft)
19.08.2014 15:26 16,2 C 15,6 C 71 % 1010,4 hPa 0,0 l/m 2 min 0 min 1,5 UV-I 369 W/m 53,0 km/h (7 Bft)
19.08.2014 15:28 16,2 C 15,6 C 69 % 1010,3 hPa 0,0 l/m 0 min 0 min 1,5 UV-I 342 W/m 63,7 km/h (8 Bft)
19.08.2014 15:30 16,2 C 15,6 C 70 % 1010,3 hPa 0,0 l/m 0 min 0 min 1,2 UV-I 282 W/m 42,4 km/h (6 Bft)
19.08.2014 15:32 16,2 C 15,6 C 70 % 1010,4 hPa 0,0 l/m 0 min 0 min 0,9 UV-I 218 W/m 74,2 km/h (8 Bft)
19.08.2014 15:34 16,1 C 15,0 C 70 % 1010,3 hPa 0,0 l/m 0 min 0 min 0,5 UV-I 162 W/m 84,9 km/h (9 Bft)
19.08.2014 15:36 15,9 C 14,4 C 66 % 1010,4 hPa 0,0 l/m 0 min 0 min 0,0 UV-I 131 W/m 63,7 km/h (8 Bft)
19.08.2014 15:38 15,7 C 14,4 C 67 % 1010,5 hPa 0,0 l/m 0 min 0 min 0,0 UV-I 108 W/m 63,7 km/h (8 Bft)
19.08.2014 15:40 15,5 C 13,9 C 69 % 1010,5 hPa 0,0 l/m 0 min 2 min 0,0 UV-I 104 W/m 74,2 km/h (8 Bft)
19.08.2014 15:42 15,2 C 13,3 C 72 % 1010,7 hPa 0,0 l/m 0 min 2 min 0,0 UV-I 99 W/m 60,2 km/h (7 Bft)
19.08.2014 15:44 14,8 C 12,2 C 74 % 1010,7 hPa 0,0 l/m 0 min 2 min 0,0 UV-I 95 W/m 53,0 km/h (7 Bft)
19.08.2014 15:46 14,3 C 11,7 C 76 % 1010,7 hPa 0,0 l/m 0 min 2 min 0,0 UV-I 106 W/m 60,2 km/h (7 Bft)
19.08.2014 15:48 14,0 C 11,1 C 78 % 1010,8 hPa 0,0 l/m 0 min 2 min 0,0 UV-I 135 W/m 46,0 km/h (6 Bft)
19.08.2014 15:50 13,7 C 11,1 C 79 % 1010,7 hPa 0,0 l/m 0 min 2 min 0,2 UV-I 173 W/m 49,5 km/h (6 Bft)
19.08.2014 15:52 13,6 C 11,7 C 81 % 1010,8 hPa 0,0 l/m 0 min 0 min 0,7 UV-I 209 W/m 38,9 km/h (6 Bft)
19.08.2014 15:54 13,5 C 11,7 C 81 % 1010,8 hPa 0,0 l/m 0 min 0 min 0,8 UV-I 248 W/m 42,4 km/h (6 Bft)
19.08.2014 15:56 13,5 C 12,2 C 81 % 1010,7 hPa 0,0 l/m 0 min 0 min 1,2 UV-I 306 W/m 42,4 km/h (6 Bft)
19.08.2014 15:58 13,8 C 12,8 C 81 % 1010,7 hPa 0,0 l/m 2 min 0 min 2,3 UV-I 426 W/m 35,4 km/h (5 Bft)
19.08.2014 16:00 14,3 C 13,3 C 81 % 1010,6 hPa 0,0 l/m 2 min 0 min 2,6 UV-I 768 W/m 46,0 km/h (6 Bft)
19.08.2014 16:02 14,9 C 13,9 C 82 % 1010,5 hPa 0,0 l/m 2 min 0 min 2,4 UV-I 707 W/m 38,9 km/h (6 Bft)
19.08.2014 16:04 15,4 C 14,4 C 80 % 1010,6 hPa 0,0 l/m 2 min 0 min 2,3 UV-I 678 W/m 56,5 km/h (7 Bft)
19.08.2014 16:06 15,7 C 14,4 C 78 % 1010,6 hPa 0,0 l/m 2 min 0 min 2,3 UV-I 666 W/m 35,4 km/h (5 Bft)
19.08.2014 16:08 16,0 C 14,4 C 77 % 1010,5 hPa 0,0 l/m 2 min 0 min 2,3 UV-I 659 W/m 38,9 km/h (6 Bft)
19.08.2014 16:10 16,1 C 15,0 C 76 % 1010,6 hPa 0,0 l/m 2 min 0 min 2,2 UV-I 632 W/m 56,5 km/h (7 Bft)
19.08.2014 16:12 16,3 C 15,0 C 75 % 1010,6 hPa 0,0 l/m 2 min 0 min 2,0 UV-I 657 W/m 46,0 km/h (6 Bft)
19.08.2014 16:14 16,6 C 15,0 C 75 % 1010,5 hPa 0,0 l/m 2 min 0 min 2,0 UV-I 621 W/m 46,0 km/h (6 Bft)
19.08.2014 16:16 16,7 C 15,6 C 74 % 1010,5 hPa 0,0 l/m 2 min 0 min 2,0 UV-I 648 W/m 49,5 km/h (6 Bft)
19.08.2014 16:18 16,7 C 16,1 C 74 % 1010,5 hPa 0,0 l/m 2 min 0 min 2,0 UV-I 634 W/m 42,4 km/h (6 Bft)
19.08.2014 16:20 16,8 C 16,1 C 72 % 1010,5 hPa 0,0 l/m 2 min 0 min 1,9 UV-I 643 W/m 35,4 km/h (5 Bft)
19.08.2014 16:22 16,9 C 16,1 C 74 % 1010,5 hPa 0,0 l/m 2 min 0 min 1,1 UV-I 368 W/m 31,7 km/h (5 Bft)
19.08.2014 16:24 16,8 C 15,6 C 72 % 1010,5 hPa 0,0 l/m 0 min 0 min 0,9 UV-I 247 W/m 49,5 km/h (6 Bft)
19.08.2014 16:26 16,6 C 15,6 C 73 % 1010,6 hPa 0,0 l/m 0 min 0 min 0,7 UV-I 232 W/m 42,4 km/h (6 Bft)
19.08.2014 16:28 16,4 C 15,6 C 72 % 1010,6 hPa 0,0 l/m 0 min 0 min 0,6 UV-I 233 W/m 42,4 km/h (6 Bft)
19.08.2014 16:30 16,3 C 15,6 C 74 % 1010,6 hPa 0,0 l/m 0 min 0 min 0,7 UV-I 240 W/m 53,0 km/h (7 Bft)
19.08.2014 16:32 16,2 C 15,0 C 73 % 1010,7 hPa 0,0 l/m 0 min 0 min 0,3 UV-I 207 W/m 46,0 km/h (6 Bft)
19.08.2014 16:34 16,0 C 15,0 C 74 % 1010,6 hPa 0,0 l/m 0 min 2 min 0,0 UV-I 188 W/m 53,0 km/h (7 Bft)
19.08.2014 16:36 15,8 C 14,4 C 76 % 1010,7 hPa 0,0 l/m 0 min 2 min 0,0 UV-I 203 W/m 46,0 km/h (6 Bft)
19.08.2014 16:38 15,7 C 14,4 C 76 % 1010,6 hPa 0,0 l/m 0 min 2 min 0,6 UV-I 290 W/m 53,0 km/h (7 Bft)
19.08.2014 16:40 15,7 C 15,0 C 77 % 1010,7 hPa 0,0 l/m 2 min 0 min 1,2 UV-I 402 W/m 46,0 km/h (6 Bft)
19.08.2014 16:42 15,9 C 15,6 C 77 % 1010,8 hPa 0,0 l/m 2 min 0 min 1,3 UV-I 463 W/m 46,0 km/h (6 Bft)
19.08.2014 16:44 16,0 C 15,6 C 76 % 1010,8 hPa 0,0 l/m 2 min 0 min 1,2 UV-I 398 W/m 60,2 km/h (7 Bft)
19.08.2014 16:46 15,9 C 15,0 C 72 % 1010,8 hPa 0,0 l/m 2 min 0 min 1,1 UV-I 409 W/m 67,1 km/h (8 Bft)
19.08.2014 16:48 15,9 C 15,0 C 73 % 1010,8 hPa 0,0 l/m 2 min 0 min 1,3 UV-I 437 W/m 70,6 km/h (8 Bft)
19.08.2014 16:50 15,9 C 15,0 C 71 % 1010,8 hPa 0,0 l/m 2 min 0 min 1,0 UV-I 282 W/m 49,5 km/h (6 Bft)
19.08.2014 16:52 16,1 C 15,0 C 72 % 1010,7 hPa 0,0 l/m 0 min 0 min 1,2 UV-I 271 W/m 56,5 km/h (7 Bft)
19.08.2014 16:54 15,9 C 15,0 C 71 % 1010,8 hPa 0,0 l/m 0 min 0 min 0,9 UV-I 272 W/m 46,0 km/h (6 Bft)
19.08.2014 16:56 15,9 C 15,0 C 72 % 1010,9 hPa 0,0 l/m 2 min 0 min 1,3 UV-I 374 W/m 49,5 km/h (6 Bft)
19.08.2014 16:58 16,1 C 15,6 C 72 % 1010,9 hPa 0,0 l/m 2 min 0 min 1,4 UV-I 568 W/m 49,5 km/h (6 Bft)
19.08.2014 17:00 16,2 C 15,6 C 70 % 1010,9 hPa 0,0 l/m 2 min 0 min 1,1 UV-I 563 W/m 49,5 km/h (6 Bft)
19.08.2014 17:02 16,2 C 15,0 C 70 % 1010,8 hPa 0,0 l/m 0 min 0 min 0,7 UV-I 201 W/m 42,4 km/h (6 Bft)
19.08.2014 17:04 16,1 C 15,0 C 71 % 1010,9 hPa 0,0 l/m 0 min 0 min 0,6 UV-I 176 W/m 35,4 km/h (5 Bft)
19.08.2014 17:06 15,9 C 15,0 C 71 % 1010,9 hPa 0,0 l/m 0 min 0 min 0,6 UV-I 184 W/m 46,0 km/h (6 Bft)
19.08.2014 17:08 15,8 C 15,0 C 70 % 1011,0 hPa 0,0 l/m 0 min 0 min 0,5 UV-I 183 W/m 63,7 km/h (8 Bft)
19.08.2014 17:10 15,6 C 15,0 C 71 % 1011,0 hPa 0,0 l/m 0 min 0 min 0,5 UV-I 184 W/m 53,0 km/h (7 Bft)
19.08.2014 17:12 15,5 C 14,4 C 72 % 1011,0 hPa 0,0 l/m 0 min 0 min 0,3 UV-I 196 W/m 53,0 km/h (7 Bft)
19.08.2014 17:14 15,4 C 14,4 C 72 % 1011,0 hPa 0,0 l/m 0 min 0 min 0,0 UV-I 203 W/m 46,0 km/h (6 Bft)
19.08.2014 17:16 15,4 C 14,4 C 73 % 1011,1 hPa 0,0 l/m 0 min 0 min 0,0 UV-I 201 W/m 35,4 km/h (5 Bft)
19.08.2014 17:18 15,3 C 14,4 C 73 % 1011,0 hPa 0,0 l/m 0 min 0 min 0,0 UV-I 196 W/m 42,4 km/h (6 Bft)
19.08.2014 17:20 15,2 C 14,4 C 72 % 1010,9 hPa 0,0 l/m 0 min 0 min 0,0 UV-I 185 W/m 67,1 km/h (8 Bft)
19.08.2014 17:22 15,1 C 14,4 C 73 % 1010,9 hPa 0,0 l/m 0 min 0 min 0,0 UV-I 172 W/m 53,0 km/h (7 Bft)
19.08.2014 17:24 15,1 C 14,4 C 73 % 1010,9 hPa 0,0 l/m 0 min 0 min 0,0 UV-I 164 W/m 49,5 km/h (6 Bft)
19.08.2014 17:26 15,1 C 13,9 C 73 % 1011,1 hPa 0,0 l/m 0 min 0 min 0,0 UV-I 161 W/m 46,0 km/h (6 Bft)
19.08.2014 17:28 15,1 C 13,9 C 72 % 1011,0 hPa 0,0 l/m 0 min 0 min 0,0 UV-I 169 W/m 49,5 km/h (6 Bft)
19.08.2014 17:30 15,1 C 13,9 C 73 % 1011,1 hPa 0,0 l/m 0 min 0 min 0,0 UV-I 168 W/m 49,5 km/h (6 Bft)
19.08.2014 17:32 15,1 C 14,4 C 74 % 1011,2 hPa 0,0 l/m 0 min 0 min 0,0 UV-I 153 W/m 63,7 km/h (8 Bft)
19.08.2014 17:34 15,2 C 13,9 C 73 % 1011,2 hPa 0,0 l/m 0 min 0 min 0,0 UV-I 128 W/m 46,0 km/h (6 Bft)
19.08.2014 17:36 15,1 C 13,9 C 71 % 1011,3 hPa 0,0 l/m 0 min 0 min 0,0 UV-I 91 W/m 49,5 km/h (6 Bft)
19.08.2014 17:38 15,0 C 13,3 C 73 % 1011,4 hPa 0,0 l/m 0 min 2 min 0,0 UV-I 75 W/m 42,4 km/h (6 Bft)
19.08.2014 17:40 14,8 C 12,2 C 75 % 1011,4 hPa 0,2 l/m 0 min 2 min 0,0 UV-I 72 W/m 49,5 km/h (6 Bft)
19.08.2014 17:42 14,5 C 11,1 C 76 % 1011,4 hPa 0,0 l/m 0 min 2 min 0,0 UV-I 80 W/m 42,4 km/h (6 Bft)
19.08.2014 17:44 14,2 C 11,1 C 78 % 1011,3 hPa 0,0 l/m 0 min 2 min 0,0 UV-I 105 W/m 46,0 km/h (6 Bft)
19.08.2014 17:46 13,8 C 11,1 C 80 % 1011,2 hPa 0,0 l/m 2 min 2 min 0,0 UV-I 261 W/m 42,4 km/h (6 Bft)
19.08.2014 17:48 13,9 C 11,7 C 80 % 1011,2 hPa 0,0 l/m 2 min 2 min 0,0 UV-I 458 W/m 38,9 km/h (6 Bft)
19.08.2014 17:50 14,2 C 11,7 C 80 % 1011,3 hPa 0,0 l/m 2 min 0 min 0,0 UV-I 447 W/m 38,9 km/h (6 Bft)
19.08.2014 17:52 14,2 C 11,7 C 79 % 1011,2 hPa 0,0 l/m 2 min 0 min 0,0 UV-I 423 W/m 38,9 km/h (6 Bft)
19.08.2014 17:54 14,4 C 11,7 C 79 % 1011,2 hPa 0,0 l/m 2 min 0 min 0,0 UV-I 345 W/m 38,9 km/h (6 Bft)
19.08.2014 17:56 14,5 C 11,7 C 79 % 1011,2 hPa 0,0 l/m 2 min 0 min 0,0 UV-I 329 W/m 42,4 km/h (6 Bft)
19.08.2014 17:58 14,6 C 11,7 C 79 % 1011,3 hPa 0,0 l/m 2 min 0 min 0,0 UV-I 315 W/m 35,4 km/h (5 Bft)
19.08.2014 18:00 14,7 C 11,7 C 78 % 1011,3 hPa 0,0 l/m 2 min 0 min 0,0 UV-I 345 W/m 35,4 km/h (5 Bft)
19.08.2014 18:02 14,9 C 12,2 C 79 % 1011,2 hPa 0,0 l/m 2 min 0 min 0,0 UV-I 361 W/m 35,4 km/h (5 Bft)
19.08.2014 18:06 15,0 C 12,2 C 77 % 1011,2 hPa 0,0 l/m 0 min 0 min 0,0 UV-I 177 W/m 35,4 km/h (5 Bft)
19.08.2014 18:08 14,9 C 12,2 C 76 % 1011,2 hPa 0,0 l/m 0 min 0 min 0,0 UV-I 106 W/m 35,4 km/h (5 Bft)
19.08.2014 18:10 14,9 C 12,2 C 77 % 1011,4 hPa 0,0 l/m 0 min 0 min 0,0 UV-I 126 W/m 49,5 km/h (6 Bft)
19.08.2014 18:12 14,8 C 12,8 C 78 % 1011,4 hPa 0,0 l/m 0 min 0 min 0,0 UV-I 129 W/m 31,7 km/h (5 Bft)
19.08.2014 18:14 14,9 C 12,8 C 79 % 1011,4 hPa 0,0 l/m 0 min 0 min 0,0 UV-I 123 W/m 17,7 km/h (3 Bft)
19.08.2014 18:16 14,8 C 12,8 C 78 % 1011,5 hPa 0,0 l/m 0 min 0 min 0,0 UV-I 116 W/m 31,7 km/h (5 Bft)
19.08.2014 18:18 14,8 C 12,8 C 79 % 1011,5 hPa 0,0 l/m 0 min 0 min 0,0 UV-I 103 W/m 38,9 km/h (6 Bft)
19.08.2014 18:20 14,8 C 12,8 C 79 % 1011,6 hPa 0,0 l/m 0 min 0 min 0,0 UV-I 104 W/m 38,9 km/h (6 Bft)
19.08.2014 18:22 14,9 C 12,8 C 79 % 1011,5 hPa 0,0 l/m 0 min 0 min 0,0 UV-I 159 W/m 28,2 km/h (4 Bft)
19.08.2014 18:24 14,9 C 12,8 C 79 % 1011,6 hPa 0,0 l/m 0 min 0 min 0,0 UV-I 112 W/m 24,7 km/h (4 Bft)
19.08.2014 18:26 14,9 C 12,8 C 78 % 1011,5 hPa 0,0 l/m 2 min 0 min 0,0 UV-I 205 W/m 38,9 km/h (6 Bft)
19.08.2014 18:28 14,9 C 12,8 C 77 % 1011,6 hPa 0,0 l/m 2 min 0 min 0,0 UV-I 249 W/m 28,2 km/h (4 Bft)
19.08.2014 18:30 15,0 C 12,8 C 77 % 1011,6 hPa 0,0 l/m 2 min 0 min 0,0 UV-I 266 W/m 35,4 km/h (5 Bft)
19.08.2014 18:32 15,0 C 12,8 C 76 % 1011,7 hPa 0,0 l/m 2 min 0 min 0,0 UV-I 208 W/m 31,7 km/h (5 Bft)
19.08.2014 18:34 15,0 C 12,8 C 76 % 1011,8 hPa 0,0 l/m 0 min 0 min 0,0 UV-I 115 W/m 38,9 km/h (6 Bft)
19.08.2014 18:36 15,0 C 12,8 C 76 % 1011,7 hPa 0,0 l/m 0 min 0 min 0,0 UV-I 126 W/m 31,7 km/h (5 Bft)
19.08.2014 18:38 15,0 C 12,8 C 75 % 1011,8 hPa 0,0 l/m 0 min 0 min 0,0 UV-I 110 W/m 35,4 km/h (5 Bft)
19.08.2014 18:40 15,0 C 12,8 C 75 % 1011,8 hPa 0,0 l/m 0 min 0 min 0,0 UV-I 105 W/m 42,4 km/h (6 Bft)
19.08.2014 18:42 14,9 C 12,8 C 74 % 1011,8 hPa 0,0 l/m 2 min 0 min 0,0 UV-I 168 W/m 53,0 km/h (7 Bft)
19.08.2014 18:44 14,9 C 12,8 C 72 % 1011,8 hPa 0,0 l/m 2 min 0 min 0,0 UV-I 245 W/m 60,2 km/h (7 Bft)
19.08.2014 18:46 15,0 C 12,8 C 72 % 1011,8 hPa 0,0 l/m 2 min 0 min 0,0 UV-I 236 W/m 38,9 km/h (6 Bft)
19.08.2014 18:48 15,1 C 13,3 C 71 % 1011,8 hPa 0,0 l/m 2 min 0 min 0,0 UV-I 220 W/m 46,0 km/h (6 Bft)
19.08.2014 18:50 15,1 C 13,3 C 71 % 1011,8 hPa 0,0 l/m 2 min 0 min 0,0 UV-I 207 W/m 53,0 km/h (7 Bft)
19.08.2014 18:52 15,1 C 13,3 C 71 % 1011,7 hPa 0,0 l/m 2 min 0 min 0,0 UV-I 206 W/m 35,4 km/h (5 Bft)
19.08.2014 18:54 15,1 C 13,3 C 71 % 1011,7 hPa 0,0 l/m 0 min 0 min 0,0 UV-I 109 W/m 38,9 km/h (6 Bft)
19.08.2014 18:56 15,0 C 13,3 C 72 % 1011,8 hPa 0,0 l/m 0 min 0 min 0,0 UV-I 77 W/m 28,2 km/h (4 Bft)
19.08.2014 18:58 14,9 C 12,8 C 72 % 1011,8 hPa 0,0 l/m 0 min 0 min 0,0 UV-I 62 W/m 35,4 km/h (5 Bft)
19.08.2014 19:00 14,8 C 12,8 C 72 % 1011,8 hPa 0,0 l/m 0 min 0 min 0,0 UV-I 68 W/m 38,9 km/h (6 Bft)
19.08.2014 19:02 14,7 C 12,8 C 74 % 1011,8 hPa 0,0 l/m 0 min 0 min 0,0 UV-I 65 W/m 31,7 km/h (5 Bft)
19.08.2014 19:04 14,6 C 12,8 C 75 % 1011,9 hPa 0,0 l/m 0 min 0 min 0,0 UV-I 64 W/m 31,7 km/h (5 Bft)
19.08.2014 19:06 14,4 C 12,8 C 75 % 1011,9 hPa 0,0 l/m 0 min 0 min 0,0 UV-I 89 W/m 24,7 km/h (4 Bft)
19.08.2014 19:08 14,4 C 12,8 C 76 % 1011,9 hPa 0,0 l/m 2 min 0 min 0,0 UV-I 147 W/m 24,7 km/h (4 Bft)
19.08.2014 19:10 14,5 C 13,3 C 77 % 1011,9 hPa 0,0 l/m 2 min 0 min 0,0 UV-I 168 W/m 21,3 km/h (4 Bft)
19.08.2014 19:12 14,6 C 13,3 C 77 % 1012,0 hPa 0,0 l/m 2 min 0 min 0,0 UV-I 155 W/m 24,7 km/h (4 Bft)
19.08.2014 19:14 14,6 C 13,3 C 77 % 1012,0 hPa 0,0 l/m 0 min 0 min 0,0 UV-I 113 W/m 35,4 km/h (5 Bft)
19.08.2014 19:16 14,6 C 13,3 C 77 % 1012,1 hPa 0,0 l/m 0 min 0 min 0,0 UV-I 109 W/m 28,2 km/h (4 Bft)
19.08.2014 19:18 14,6 C 12,8 C 77 % 1012,1 hPa 0,0 l/m 0 min 0 min 0,0 UV-I 80 W/m 24,7 km/h (4 Bft)
19.08.2014 19:20 14,6 C 12,8 C 77 % 1012,1 hPa 0,0 l/m 0 min 0 min 0,0 UV-I 65 W/m 35,4 km/h (5 Bft)
19.08.2014 19:22 14,6 C 12,8 C 77 % 1012,2 hPa 0,0 l/m 0 min 0 min 0,0 UV-I 59 W/m 28,2 km/h (4 Bft)
19.08.2014 19:24 14,6 C 12,8 C 77 % 1012,2 hPa 0,0 l/m 0 min 0 min 0,0 UV-I 54 W/m 31,7 km/h (5 Bft)
19.08.2014 19:26 14,6 C 12,8 C 77 % 1012,2 hPa 0,0 l/m 0 min 0 min 0,0 UV-I 56 W/m 31,7 km/h (5 Bft)
19.08.2014 19:28 14,6 C 12,8 C 77 % 1012,2 hPa 0,0 l/m 0 min 0 min 0,0 UV-I 48 W/m 7,1 km/h (2 Bft)
19.08.2014 19:30 14,6 C 13,3 C 77 % 1012,3 hPa 0,0 l/m 0 min 0 min 0,0 UV-I 47 W/m 46,0 km/h (6 Bft)
19.08.2014 19:32 14,5 C 12,8 C 77 % 1012,3 hPa 0,0 l/m 0 min 0 min 0,0 UV-I 47 W/m 42,4 km/h (6 Bft)
19.08.2014 19:34 14,4 C 12,8 C 77 % 1012,3 hPa 0,0 l/m 0 min 0 min 0,0 UV-I 49 W/m 35,4 km/h (5 Bft)
19.08.2014 19:36 14,4 C 12,8 C 77 % 1012,4 hPa 0,0 l/m 0 min 0 min 0,0 UV-I 47 W/m 35,4 km/h (5 Bft)
19.08.2014 19:38 14,4 C 12,8 C 77 % 1012,3 hPa 0,0 l/m 0 min 0 min 0,0 UV-I 40 W/m 31,7 km/h (5 Bft)
19.08.2014 19:40 14,3 C 12,8 C 77 % 1012,3 hPa 0,0 l/m 0 min 0 min 0,0 UV-I 39 W/m 31,7 km/h (5 Bft)
19.08.2014 19:42 14,3 C 12,8 C 77 % 1012,4 hPa 0,0 l/m 0 min 0 min 0,0 UV-I 37 W/m 38,9 km/h (6 Bft)
19.08.2014 19:44 14,3 C 12,8 C 77 % 1012,4 hPa 0,0 l/m 0 min 0 min 0,0 UV-I 40 W/m 21,3 km/h (4 Bft)
19.08.2014 19:46 14,2 C 12,8 C 78 % 1012,4 hPa 0,0 l/m 0 min 0 min 0,0 UV-I 60 W/m 24,7 km/h (4 Bft)
19.08.2014 19:48 14,2 C 12,8 C 77 % 1012,4 hPa 0,0 l/m 2 min 0 min 0,0 UV-I 70 W/m 35,4 km/h (5 Bft)
19.08.2014 19:50 14,3 C 12,8 C 78 % 1012,5 hPa 0,0 l/m 0 min 0 min 0,0 UV-I 61 W/m 21,3 km/h (4 Bft)
19.08.2014 19:52 14,3 C 12,8 C 77 % 1012,5 hPa 0,0 l/m 0 min 0 min 0,0 UV-I 42 W/m 28,2 km/h (4 Bft)
19.08.2014 19:54 14,2 C 12,8 C 77 % 1012,5 hPa 0,0 l/m 0 min 0 min 0,0 UV-I 37 W/m 31,7 km/h (5 Bft)
19.08.2014 19:56 14,2 C 12,8 C 77 % 1012,5 hPa 0,0 l/m 0 min 0 min 0,0 UV-I 36 W/m 24,7 km/h (4 Bft)
19.08.2014 19:58 14,2 C 12,8 C 78 % 1012,5 hPa 0,0 l/m 0 min 0 min 0,0 UV-I 33 W/m 24,7 km/h (4 Bft)
19.08.2014 20:00 14,2 C 12,8 C 78 % 1012,5 hPa 0,0 l/m 0 min 0 min 0,0 UV-I 31 W/m 17,7 km/h (3 Bft)
19.08.2014 20:02 14,1 C 12,2 C 78 % 1012,5 hPa 0,0 l/m 0 min 0 min 0,0 UV-I 32 W/m 28,2 km/h (4 Bft)
19.08.2014 20:04 13,9 C 12,2 C 78 % 1012,5 hPa 0,0 l/m 0 min 0 min 0,0 UV-I 32 W/m 24,7 km/h (4 Bft)
19.08.2014 20:06 13,9 C 12,2 C 79 % 1012,6 hPa 0,0 l/m 0 min 0 min 0,0 UV-I 28 W/m 17,7 km/h (3 Bft)
19.08.2014 20:08 13,8 C 12,2 C 79 % 1012,6 hPa 0,0 l/m 0 min 0 min 0,0 UV-I 27 W/m 28,2 km/h (4 Bft)
19.08.2014 20:10 13,7 C 12,2 C 79 % 1012,7 hPa 0,0 l/m 0 min 0 min 0,0 UV-I 26 W/m 31,7 km/h (5 Bft)
19.08.2014 20:12 13,7 C 12,2 C 78 % 1012,7 hPa 0,0 l/m 0 min 0 min 0,0 UV-I 25 W/m 31,7 km/h (5 Bft)
19.08.2014 20:14 13,6 C 12,2 C 78 % 1012,8 hPa 0,0 l/m 0 min 0 min 0,0 UV-I 23 W/m 35,4 km/h (5 Bft)
19.08.2014 20:16 13,5 C 12,2 C 78 % 1012,8 hPa 0,0 l/m 0 min 0 min 0,0 UV-I 22 W/m 21,3 km/h (4 Bft)
19.08.2014 20:18 13,4 C 11,7 C 79 % 1012,8 hPa 0,0 l/m 0 min 0 min 0,0 UV-I 21 W/m 31,7 km/h (5 Bft)
19.08.2014 20:20 13,3 C 11,7 C 79 % 1012,9 hPa 0,0 l/m 0 min 0 min 0,0 UV-I 19 W/m 24,7 km/h (4 Bft)
19.08.2014 20:22 13,2 C 11,7 C 79 % 1012,9 hPa 0,0 l/m 0 min 0 min 0,0 UV-I 18 W/m 21,3 km/h (4 Bft)
19.08.2014 20:24 13,1 C 11,7 C 79 % 1012,9 hPa 0,0 l/m 0 min 0 min 0,0 UV-I 18 W/m 31,7 km/h (5 Bft)
19.08.2014 20:26 13,1 C 11,7 C 79 % 1013,0 hPa 0,0 l/m 0 min 0 min 0,0 UV-I 16 W/m 17,7 km/h (3 Bft)
19.08.2014 20:28 13,1 C 11,7 C 79 % 1013,1 hPa 0,0 l/m 0 min 0 min 0,0 UV-I 15 W/m 28,2 km/h (4 Bft)
19.08.2014 20:30 12,9 C 11,7 C 79 % 1013,1 hPa 0,0 l/m 0 min 0 min 0,0 UV-I 14 W/m 24,7 km/h (4 Bft)
19.08.2014 20:32 12,9 C 11,7 C 79 % 1013,1 hPa 0,0 l/m 0 min 0 min 0,0 UV-I 12 W/m 17,7 km/h (3 Bft)
19.08.2014 20:34 12,8 C 11,1 C 80 % 1013,1 hPa 0,0 l/m 0 min 0 min 0,0 UV-I 11 W/m 21,3 km/h (4 Bft)
19.08.2014 20:36 12,7 C 11,1 C 80 % 1013,2 hPa 0,0 l/m 0 min 0 min 0,0 UV-I 11 W/m 17,7 km/h (3 Bft)
19.08.2014 20:38 12,7 C 11,1 C 80 % 1013,2 hPa 0,0 l/m 0 min 0 min 0,0 UV-I 9 W/m 17,7 km/h (3 Bft)
19.08.2014 20:40 12,6 C 11,1 C 81 % 1013,2 hPa 0,0 l/m 0 min 0 min 0,0 UV-I 9 W/m 17,7 km/h (3 Bft)
19.08.2014 20:42 12,5 C 11,1 C 81 % 1013,2 hPa 0,0 l/m 0 min 0 min 0,0 UV-I 7 W/m 14,2 km/h (3 Bft)
19.08.2014 20:44 12,4 C 10,6 C 81 % 1013,2 hPa 0,0 l/m 0 min 0 min 0,0 UV-I 0 W/m 17,7 km/h (3 Bft)
19.08.2014 20:46 12,4 C 10,6 C 81 % 1013,2 hPa 0,0 l/m 0 min 0 min 0,0 UV-I 0 W/m 24,7 km/h (4 Bft)
19.08.2014 20:48 12,3 C 10,6 C 81 % 1013,2 hPa 0,0 l/m 0 min 0 min 0,0 UV-I 0 W/m 17,7 km/h (3 Bft)
19.08.2014 20:50 12,3 C 10,6 C 81 % 1013,3 hPa 0,0 l/m 0 min 0 min 0,0 UV-I 0 W/m 21,3 km/h (4 Bft)
19.08.2014 20:52 12,2 C 10,6 C 81 % 1013,4 hPa 0,0 l/m 0 min 0 min 0,0 UV-I 0 W/m 28,2 km/h (4 Bft)
19.08.2014 20:54 12,2 C 10,6 C 82 % 1013,3 hPa 0,0 l/m 0 min 0 min 0,0 UV-I 0 W/m 17,7 km/h (3 Bft)
19.08.2014 20:56 12,1 C 10,6 C 82 % 1013,3 hPa 0,0 l/m 0 min 0 min 0,0 UV-I 0 W/m 17,7 km/h (3 Bft)
19.08.2014 20:58 12,1 C 10,6 C 82 % 1013,3 hPa 0,0 l/m 0 min 0 min 0,0 UV-I 0 W/m 21,3 km/h (4 Bft)
19.08.2014 21:00 12,0 C 10,6 C 81 % 1013,4 hPa 0,0 l/m 0 min 0 min 0,0 UV-I 0 W/m 24,7 km/h (4 Bft)
19.08.2014 21:02 12,0 C 10,6 C 82 % 1013,5 hPa 0,0 l/m 0 min 0 min 0,0 UV-I 0 W/m 17,7 km/h (3 Bft)
19.08.2014 21:04 11,9 C 10,6 C 81 % 1013,5 hPa 0,0 l/m 0 min 0 min 0,0 UV-I 0 W/m 21,3 km/h (4 Bft)
19.08.2014 21:06 11,9 C 10,6 C 81 % 1013,5 hPa 0,0 l/m 0 min 0 min 0,0 UV-I 0 W/m 17,7 km/h (3 Bft)
19.08.2014 21:08 11,9 C 10,6 C 81 % 1013,6 hPa 0,0 l/m 0 min 0 min 0,0 UV-I 0 W/m 24,7 km/h (4 Bft)
19.08.2014 21:10 12,0 C 10,6 C 80 % 1013,6 hPa 0,0 l/m 0 min 0 min 0,0 UV-I 0 W/m 21,3 km/h (4 Bft)
19.08.2014 21:12 11,9 C 10,6 C 80 % 1013,6 hPa 0,0 l/m 0 min 0 min 0,0 UV-I 0 W/m 17,7 km/h (3 Bft)
19.08.2014 21:14 11,9 C 10,6 C 81 % 1013,6 hPa 0,0 l/m 0 min 0 min 0,0 UV-I 0 W/m 14,2 km/h (3 Bft)
19.08.2014 21:16 11,8 C 10,6 C 81 % 1013,7 hPa 0,0 l/m 0 min 0 min 0,0 UV-I 0 W/m 28,2 km/h (4 Bft)
19.08.2014 21:18 11,8 C 10,0 C 81 % 1013,7 hPa 0,0 l/m 0 min 0 min 0,0 UV-I 0 W/m 14,2 km/h (3 Bft)
19.08.2014 21:20 11,7 C 10,0 C 81 % 1013,7 hPa 0,0 l/m 0 min 0 min 0,0 UV-I 0 W/m 14,2 km/h (3 Bft)
19.08.2014 21:22 11,6 C 10,0 C 81 % 1013,7 hPa 0,0 l/m 0 min 0 min 0,0 UV-I 0 W/m 10,7 km/h (2 Bft)
19.08.2014 21:24 11,6 C 10,0 C 82 % 1013,6 hPa 0,0 l/m 0 min 0 min 0,0 UV-I 0 W/m 3,5 km/h (1 Bft)
19.08.2014 21:26 11,4 C 10,0 C 82 % 1013,6 hPa 0,0 l/m 0 min 0 min 0,0 UV-I 0 W/m 14,2 km/h (3 Bft)
19.08.2014 21:28 11,4 C 10,0 C 82 % 1013,7 hPa 0,0 l/m 0 min 0 min 0,0 UV-I 0 W/m 3,5 km/h (1 Bft)
19.08.2014 21:30 11,3 C 9,4 C 83 % 1013,7 hPa 0,0 l/m 0 min 0 min 0,0 UV-I 0 W/m 0,0 km/h (0 Bft)
19.08.2014 21:32 11,3 C 9,4 C 83 % 1013,7 hPa 0,0 l/m 0 min 0 min 0,0 UV-I 0 W/m 0,0 km/h (0 Bft)
19.08.2014 21:34 11,2 C 9,4 C 83 % 1013,7 hPa 0,0 l/m 0 min 0 min 0,0 UV-I 0 W/m 0,0 km/h (0 Bft)
19.08.2014 21:36 11,1 C 9,4 C 84 % 1013,7 hPa 0,0 l/m 0 min 0 min 0,0 UV-I 0 W/m 0,0 km/h (0 Bft)
19.08.2014 21:38 11,1 C 9,4 C 84 % 1013,7 hPa 0,0 l/m 0 min 0 min 0,0 UV-I 0 W/m 0,0 km/h (0 Bft)
19.08.2014 21:40 11,0 C 9,4 C 84 % 1013,7 hPa 0,0 l/m 0 min 0 min 0,0 UV-I 0 W/m 0,0 km/h (0 Bft)
19.08.2014 21:42 10,9 C 8,9 C 85 % 1013,8 hPa 0,0 l/m 0 min 0 min 0,0 UV-I 0 W/m 0,0 km/h (0 Bft)
19.08.2014 21:44 10,8 C 8,9 C 85 % 1013,8 hPa 0,0 l/m 0 min 0 min 0,0 UV-I 0 W/m 0,0 km/h (0 Bft)
19.08.2014 21:46 10,7 C 8,9 C 86 % 1013,9 hPa 0,0 l/m 0 min 0 min 0,0 UV-I 0 W/m 17,7 km/h (3 Bft)
19.08.2014 21:48 10,7 C 8,9 C 86 % 1013,9 hPa 0,0 l/m 0 min 0 min 0,0 UV-I 0 W/m 0,0 km/h (0 Bft)
19.08.2014 21:50 10,6 C 8,9 C 86 % 1013,9 hPa 0,0 l/m 0 min 0 min 0,0 UV-I 0 W/m 14,2 km/h (3 Bft)
19.08.2014 21:52 10,6 C 8,9 C 86 % 1013,9 hPa 0,0 l/m 0 min 0 min 0,0 UV-I 0 W/m 0,0 km/h (0 Bft)
19.08.2014 21:54 10,6 C 8,9 C 87 % 1014,0 hPa 0,0 l/m 0 min 0 min 0,0 UV-I 0 W/m 0,0 km/h (0 Bft)
19.08.2014 21:56 10,6 C 8,9 C 87 % 1013,9 hPa 0,0 l/m 0 min 0 min 0,0 UV-I 0 W/m 0,0 km/h (0 Bft)
19.08.2014 21:58 10,6 C 8,9 C 87 % 1013,9 hPa 0,0 l/m 0 min 0 min 0,0 UV-I 0 W/m 10,7 km/h (2 Bft)
19.08.2014 22:00 10,6 C 8,9 C 87 % 1013,9 hPa 0,0 l/m 0 min 0 min 0,0 UV-I 0 W/m 7,1 km/h (2 Bft)
19.08.2014 22:02 10,5 C 8,9 C 87 % 1013,9 hPa 0,0 l/m 0 min 0 min 0,0 UV-I 0 W/m 0,0 km/h (0 Bft)
19.08.2014 22:04 10,5 C 8,9 C 87 % 1013,9 hPa 0,0 l/m 0 min 0 min 0,0 UV-I 0 W/m 0,0 km/h (0 Bft)
19.08.2014 22:06 10,4 C 8,9 C 87 % 1013,9 hPa 0,0 l/m 0 min 0 min 0,0 UV-I 0 W/m 0,0 km/h (0 Bft)
19.08.2014 22:08 10,4 C 8,9 C 87 % 1013,9 hPa 0,0 l/m 0 min 0 min 0,0 UV-I 0 W/m 0,0 km/h (0 Bft)
19.08.2014 22:10 10,4 C 8,9 C 87 % 1013,9 hPa 0,0 l/m 0 min 0 min 0,0 UV-I 0 W/m 0,0 km/h (0 Bft)
19.08.2014 22:12 10,4 C 8,9 C 87 % 1013,9 hPa 0,0 l/m 0 min 0 min 0,0 UV-I 0 W/m 0,0 km/h (0 Bft)
19.08.2014 22:14 10,4 C 8,9 C 87 % 1013,9 hPa 0,0 l/m 0 min 0 min 0,0 UV-I 0 W/m 0,0 km/h (0 Bft)
19.08.2014 22:16 10,3 C 8,3 C 87 % 1013,9 hPa 0,0 l/m 0 min 0 min 0,0 UV-I 0 W/m 0,0 km/h (0 Bft)
19.08.2014 22:18 10,3 C 8,3 C 87 % 1013,9 hPa 0,0 l/m 0 min 0 min 0,0 UV-I 0 W/m 0,0 km/h (0 Bft)
19.08.2014 22:20 10,2 C 8,3 C 88 % 1013,9 hPa 0,0 l/m 0 min 0 min 0,0 UV-I 0 W/m 0,0 km/h (0 Bft)
19.08.2014 22:22 10,1 C 8,3 C 88 % 1013,9 hPa 0,0 l/m 0 min 0 min 0,0 UV-I 0 W/m 0,0 km/h (0 Bft)
19.08.2014 22:24 10,1 C 8,3 C 88 % 1013,9 hPa 0,0 l/m 0 min 0 min 0,0 UV-I 0 W/m 0,0 km/h (0 Bft)
19.08.2014 22:26 10,0 C 8,3 C 89 % 1013,9 hPa 0,0 l/m 0 min 0 min 0,0 UV-I 0 W/m 0,0 km/h (0 Bft)
19.08.2014 22:28 9,9 C 8,3 C 89 % 1013,9 hPa 0,0 l/m 0 min 0 min 0,0 UV-I 0 W/m 0,0 km/h (0 Bft)
19.08.2014 22:30 9,9 C 8,3 C 89 % 1013,9 hPa 0,0 l/m 0 min 0 min 0,0 UV-I 0 W/m 0,0 km/h (0 Bft)
19.08.2014 22:32 9,9 C 8,3 C 90 % 1013,9 hPa 0,0 l/m 0 min 0 min 0,0 UV-I 0 W/m 0,0 km/h (0 Bft)
19.08.2014 22:34 9,8 C 8,3 C 90 % 1014,0 hPa 0,0 l/m 0 min 0 min 0,0 UV-I 0 W/m 0,0 km/h (0 Bft)
19.08.2014 22:36 9,7 C 8,3 C 90 % 1014,0 hPa 0,0 l/m 0 min 0 min 0,0 UV-I 0 W/m 0,0 km/h (0 Bft)
19.08.2014 22:38 9,7 C 8,3 C 91 % 1014,0 hPa 0,0 l/m 0 min 0 min 0,0 UV-I 0 W/m 17,7 km/h (3 Bft)
19.08.2014 22:40 9,7 C 8,9 C 91 % 1014,2 hPa 0,0 l/m 0 min 0 min 0,0 UV-I 0 W/m 17,7 km/h (3 Bft)
19.08.2014 22:42 9,8 C 8,9 C 91 % 1014,2 hPa 0,0 l/m 0 min 0 min 0,0 UV-I 0 W/m 21,3 km/h (4 Bft)
19.08.2014 22:44 9,8 C 8,9 C 91 % 1014,2 hPa 0,0 l/m 0 min 0 min 0,0 UV-I 0 W/m 21,3 km/h (4 Bft)
19.08.2014 22:46 9,9 C 8,9 C 91 % 1014,2 hPa 0,0 l/m 0 min 0 min 0,0 UV-I 0 W/m 14,2 km/h (3 Bft)
19.08.2014 22:48 10,0 C 8,9 C 91 % 1014,2 hPa 0,0 l/m 0 min 0 min 0,0 UV-I 0 W/m 17,7 km/h (3 Bft)
19.08.2014 22:50 10,1 C 8,9 C 90 % 1014,1 hPa 0,0 l/m 0 min 0 min 0,0 UV-I 0 W/m 17,7 km/h (3 Bft)
19.08.2014 22:52 10,1 C 8,9 C 90 % 1014,1 hPa 0,0 l/m 0 min 0 min 0,0 UV-I 0 W/m 14,2 km/h (3 Bft)
19.08.2014 22:54 10,1 C 8,9 C 89 % 1014,2 hPa 0,0 l/m 0 min 0 min 0,0 UV-I 0 W/m 17,7 km/h (3 Bft)
19.08.2014 22:56 10,1 C 8,9 C 89 % 1014,2 hPa 0,0 l/m 0 min 0 min 0,0 UV-I 0 W/m 14,2 km/h (3 Bft)
19.08.2014 22:58 10,1 C 8,9 C 89 % 1014,2 hPa 0,0 l/m 0 min 0 min 0,0 UV-I 0 W/m 14,2 km/h (3 Bft)
19.08.2014 23:00 10,1 C 8,9 C 89 % 1014,2 hPa 0,0 l/m 0 min 0 min 0,0 UV-I 0 W/m 3,5 km/h (1 Bft)
19.08.2014 23:02 10,1 C 8,9 C 89 % 1014,2 hPa 0,0 l/m 0 min 0 min 0,0 UV-I 0 W/m 14,2 km/h (3 Bft)
19.08.2014 23:04 10,1 C 8,9 C 88 % 1014,2 hPa 0,0 l/m 0 min 0 min 0,0 UV-I 0 W/m 10,7 km/h (2 Bft)
19.08.2014 23:06 10,1 C 8,9 C 88 % 1014,2 hPa 0,0 l/m 0 min 0 min 0,0 UV-I 0 W/m 14,2 km/h (3 Bft)
19.08.2014 23:08 10,1 C 8,9 C 88 % 1014,2 hPa 0,0 l/m 0 min 0 min 0,0 UV-I 0 W/m 17,7 km/h (3 Bft)
19.08.2014 23:10 10,1 C 8,9 C 88 % 1014,2 hPa 0,0 l/m 0 min 0 min 0,0 UV-I 0 W/m 17,7 km/h (3 Bft)
19.08.2014 23:12 10,2 C 8,9 C 88 % 1014,2 hPa 0,0 l/m 0 min 0 min 0,0 UV-I 0 W/m 17,7 km/h (3 Bft)
19.08.2014 23:14 10,2 C 8,9 C 88 % 1014,2 hPa 0,0 l/m 0 min 0 min 0,0 UV-I 0 W/m 17,7 km/h (3 Bft)
19.08.2014 23:16 10,2 C 8,9 C 88 % 1014,2 hPa 0,0 l/m 0 min 0 min 0,0 UV-I 0 W/m 14,2 km/h (3 Bft)
19.08.2014 23:18 10,2 C 8,9 C 88 % 1014,3 hPa 0,0 l/m 0 min 0 min 0,0 UV-I 0 W/m 14,2 km/h (3 Bft)
19.08.2014 23:20 10,2 C 8,9 C 88 % 1014,2 hPa 0,0 l/m 0 min 0 min 0,0 UV-I 0 W/m 14,2 km/h (3 Bft)
19.08.2014 23:22 10,1 C 8,9 C 88 % 1014,2 hPa 0,0 l/m 0 min 0 min 0,0 UV-I 0 W/m 17,7 km/h (3 Bft)
19.08.2014 23:24 10,1 C 8,9 C 88 % 1014,3 hPa 0,0 l/m 0 min 0 min 0,0 UV-I 0 W/m 17,7 km/h (3 Bft)
19.08.2014 23:26 10,2 C 8,9 C 88 % 1014,4 hPa 0,0 l/m 0 min 0 min 0,0 UV-I 0 W/m 14,2 km/h (3 Bft)
19.08.2014 23:28 10,1 C 8,9 C 88 % 1014,4 hPa 0,0 l/m 0 min 0 min 0,0 UV-I 0 W/m 14,2 km/h (3 Bft)
19.08.2014 23:30 10,1 C 8,9 C 88 % 1014,4 hPa 0,0 l/m 0 min 0 min 0,0 UV-I 0 W/m 17,7 km/h (3 Bft)
19.08.2014 23:32 10,1 C 8,9 C 87 % 1014,4 hPa 0,0 l/m 0 min 0 min 0,0 UV-I 0 W/m 17,7 km/h (3 Bft)
19.08.2014 23:34 10,1 C 8,9 C 87 % 1014,4 hPa 0,0 l/m 0 min 0 min 0,0 UV-I 0 W/m 14,2 km/h (3 Bft)
19.08.2014 23:36 10,1 C 8,9 C 87 % 1014,4 hPa 0,0 l/m 0 min 0 min 0,0 UV-I 0 W/m 17,7 km/h (3 Bft)
19.08.2014 23:38 10,1 C 9,4 C 88 % 1014,4 hPa 0,0 l/m 0 min 0 min 0,0 UV-I 0 W/m 28,2 km/h (4 Bft)
19.08.2014 23:40 10,1 C 9,4 C 87 % 1014,4 hPa 0,0 l/m 0 min 0 min 0,0 UV-I 0 W/m 21,3 km/h (4 Bft)
19.08.2014 23:42 10,2 C 9,4 C 88 % 1014,4 hPa 0,0 l/m 0 min 0 min 0,0 UV-I 0 W/m 17,7 km/h (3 Bft)
19.08.2014 23:44 10,2 C 8,9 C 88 % 1014,4 hPa 0,0 l/m 0 min 0 min 0,0 UV-I 0 W/m 17,7 km/h (3 Bft)
19.08.2014 23:46 10,1 C 8,9 C 87 % 1014,4 hPa 0,0 l/m 0 min 0 min 0,0 UV-I 0 W/m 14,2 km/h (3 Bft)
19.08.2014 23:48 10,1 C 8,9 C 88 % 1014,4 hPa 0,0 l/m 0 min 0 min 0,0 UV-I 0 W/m 14,2 km/h (3 Bft)
19.08.2014 23:50 10,1 C 8,9 C 88 % 1014,4 hPa 0,0 l/m 0 min 0 min 0,0 UV-I 0 W/m 21,3 km/h (4 Bft)
19.08.2014 23:52 10,1 C 8,9 C 87 % 1014,4 hPa 0,0 l/m 0 min 0 min 0,0 UV-I 0 W/m 17,7 km/h (3 Bft)
19.08.2014 23:54 10,1 C 8,9 C 88 % 1014,4 hPa 0,0 l/m 0 min 0 min 0,0 UV-I 0 W/m 21,3 km/h (4 Bft)
19.08.2014 23:56 10,1 C 8,9 C 88 % 1014,4 hPa 0,0 l/m 0 min 0 min 0,0 UV-I 0 W/m 21,3 km/h (4 Bft)
19.08.2014 23:58 10,1 C 8,9 C 88 % 1014,4 hPa 0,0 l/m 0 min 0 min 0,0 UV-I 0 W/m 24,7 km/h (4 Bft)
_ Min-Zeit 22:36 22:16 15:36 05:44 - - - - - 00:14
Minimum _ 9,7 C 8,3 C 66 % 1008,5 hPa - - - - - 0,0 km/h (0 Bft)
_ Max-Zeit 21:44 15:06 00:00 23:26 07:54 13:36 04:10 16:00 16:00 15:34
Maximum _ 21,0 C 16,7 C 97 % 1014,4 hPa 0,4 l/m 2 min 2 min 2,6 UV-I 768 W/m 84,9 km/h
W (9 Bft)
Durchschnitt _ 13,0 C 11,9 C 88 % 1010,4 hPa #2,4 l/m #2:20 h #1:46 h 1,3 UV-I 174 W/m 25,7 km/h (4 Bft)
© 2014 W. Hausmann